Time,TemperatureF,DewpointF,PressureIn,WindDirection,WindDirectionDegrees,WindSpeedMPH,WindSpeedGustMPH,Humidity,HourlyPrecipIn,Conditions,Clouds,dailyrainin,SoftwareType,DateUTC
2013-05-06 00:01:00,65.2,19.9,29.81,North,0,0.0,0.0,18,0.00,,,0.00,WUHU216HW,2013-05-06 06:01:00,
2013-05-06 00:02:00,65.2,19.9,29.81,North,0,0.0,0.0,18,0.00,,,0.00,WUHU216HW,2013-05-06 06:02:00,
2013-05-06 00:03:00,65.2,19.9,29.81,North,0,0.0,0.0,18,0.00,,,0.00,WUHU216HW,2013-05-06 06:03:00,
2013-05-06 00:04:00,65.2,19.9,29.81,North,0,0.0,0.0,18,0.00,,,0.00,WUHU216HW,2013-05-06 06:04:00,
2013-05-06 00:06:00,65.0,19.8,29.81,North,0,0.0,0.0,18,0.00,,,0.00,WUHU216HW,2013-05-06 06:06:00,
2013-05-06 00:07:00,65.0,19.8,29.81,North,0,0.0,0.0,18,0.00,,,0.00,WUHU216HW,2013-05-06 06:07:00,
2013-05-06 00:08:00,65.0,19.8,29.81,North,0,0.0,0.0,18,0.00,,,0.00,WUHU216HW,2013-05-06 06:08:00,
2013-05-06 00:10:00,65.0,19.8,29.81,North,0,0.0,0.0,18,0.00,,,0.00,WUHU216HW,2013-05-06 06:10:00,
2013-05-06 00:11:00,65.0,19.8,29.81,North,0,0.0,0.0,18,0.00,,,0.00,WUHU216HW,2013-05-06 06:11:00,
2013-05-06 00:12:00,65.0,19.8,29.81,North,0,0.0,0.0,18,0.00,,,0.00,WUHU216HW,2013-05-06 06:12:00,
2013-05-06 00:14:00,65.0,19.8,29.81,North,0,0.0,0.0,18,0.00,,,0.00,WUHU216HW,2013-05-06 06:14:00,
2013-05-06 00:15:00,65.0,19.8,29.81,North,0,0.0,0.0,18,0.00,,,0.00,WUHU216HW,2013-05-06 06:15:00,
2013-05-06 00:16:00,65.0,19.8,29.81,North,0,0.0,0.0,18,0.00,,,0.00,WUHU216HW,2013-05-06 06:16:00,
2013-05-06 00:17:00,65.0,19.8,29.81,North,0,0.0,0.0,18,0.00,,,0.00,WUHU216HW,2013-05-06 06:17:00,
2013-05-06 00:19:00,65.0,19.8,29.81,North,0,0.0,0.0,18,0.00,,,0.00,WUHU216HW,2013-05-06 06:19:00,
2013-05-06 00:20:00,64.8,19.6,29.81,North,0,0.0,0.0,18,0.00,,,0.00,WUHU216HW,2013-05-06 06:20:00,
2013-05-06 00:21:00,64.8,19.6,29.81,North,0,0.0,0.0,18,0.00,,,0.00,WUHU216HW,2013-05-06 06:21:00,
2013-05-06 00:23:00,64.8,19.6,29.81,North,0,0.0,0.0,18,0.00,,,0.00,WUHU216HW,2013-05-06 06:23:00,
2013-05-06 00:25:00,64.8,21.3,29.81,North,0,0.0,0.0,19,0.00,,,0.00,WUHU216HW,2013-05-06 06:25:00,
2013-05-06 00:26:00,64.6,21.1,29.81,North,0,0.0,0.0,19,0.00,,,0.00,WUHU216HW,2013-05-06 06:26:00,
2013-05-06 00:27:00,64.6,21.1,29.81,North,0,0.0,0.0,19,0.00,,,0.00,WUHU216HW,2013-05-06 06:27:00,
2013-05-06 00:28:00,64.6,21.1,29.81,North,0,0.0,0.0,19,0.00,,,0.00,WUHU216HW,2013-05-06 06:28:00,
2013-05-06 00:30:00,64.6,21.1,29.81,North,0,0.0,0.0,19,0.00,,,0.00,WUHU216HW,2013-05-06 06:30:00,
2013-05-06 00:32:00,64.6,21.1,29.81,North,0,0.0,0.0,19,0.00,,,0.00,WUHU216HW,2013-05-06 06:32:00,
2013-05-06 00:33:00,64.6,21.1,29.81,North,0,0.0,0.0,19,0.00,,,0.00,WUHU216HW,2013-05-06 06:33:00,
2013-05-06 00:35:00,64.6,21.1,29.81,North,0,0.0,0.0,19,0.00,,,0.00,WUHU216HW,2013-05-06 06:35:00,
2013-05-06 00:36:00,64.6,21.1,29.81,North,0,0.0,0.0,19,0.00,,,0.00,WUHU216HW,2013-05-06 06:36:00,
2013-05-06 00:37:00,64.6,21.1,29.81,North,0,0.0,0.0,19,0.00,,,0.00,WUHU216HW,2013-05-06 06:37:00,
2013-05-06 00:39:00,64.4,20.9,29.81,North,0,0.0,0.0,19,0.00,,,0.00,WUHU216HW,2013-05-06 06:39:00,
2013-05-06 00:40:00,64.4,20.9,29.81,North,0,0.0,0.0,19,0.00,,,0.00,WUHU216HW,2013-05-06 06:40:00,
2013-05-06 00:41:00,64.4,20.9,29.81,North,0,0.0,0.0,19,0.00,,,0.00,WUHU216HW,2013-05-06 06:41:00,
2013-05-06 00:42:00,64.4,20.9,29.81,North,0,0.0,0.0,19,0.00,,,0.00,WUHU216HW,2013-05-06 06:42:00,
2013-05-06 00:44:00,64.4,20.9,29.81,North,0,0.0,0.0,19,0.00,,,0.00,WUHU216HW,2013-05-06 06:44:00,
2013-05-06 00:45:00,64.4,20.9,29.81,North,0,0.0,0.0,19,0.00,,,0.00,WUHU216HW,2013-05-06 06:45:00,
2013-05-06 00:46:00,64.4,20.9,29.80,North,0,0.0,0.0,19,0.00,,,0.00,WUHU216HW,2013-05-06 06:46:00,
2013-05-06 00:47:00,64.4,20.9,29.81,North,0,0.0,0.0,19,0.00,,,0.00,WUHU216HW,2013-05-06 06:47:00,
2013-05-06 00:50:00,64.3,20.8,29.81,North,0,0.0,0.0,19,0.00,,,0.00,WUHU216HW,2013-05-06 06:50:00,
2013-05-06 00:51:00,64.3,20.8,29.81,North,0,0.0,0.0,19,0.00,,,0.00,WUHU216HW,2013-05-06 06:51:00,
2013-05-06 00:52:00,64.1,22.2,29.81,North,0,0.0,0.0,20,0.00,,,0.00,WUHU216HW,2013-05-06 06:52:00,
2013-05-06 00:53:00,64.1,20.6,29.81,North,0,0.0,0.0,19,0.00,,,0.00,WUHU216HW,2013-05-06 06:53:00,
2013-05-06 00:55:00,64.1,20.6,29.81,North,0,0.0,0.0,19,0.00,,,0.00,WUHU216HW,2013-05-06 06:55:00,
2013-05-06 00:56:00,64.1,22.2,29.81,North,0,0.0,0.0,20,0.00,,,0.00,WUHU216HW,2013-05-06 06:56:00,
2013-05-06 00:58:00,63.9,22.1,29.81,North,0,0.0,0.0,20,0.00,,,0.00,WUHU216HW,2013-05-06 06:58:00,
2013-05-06 01:00:00,63.9,23.0,29.81,North,0,0.0,0.0,21,0.00,,,0.00,WUHU216HW,2013-05-06 07:00:00,
2013-05-06 01:01:00,63.7,23.0,29.80,North,0,0.0,0.0,21,0.00,,,0.00,WUHU216HW,2013-05-06 07:01:00,
2013-05-06 01:03:00,63.7,22.0,29.80,North,0,0.0,0.0,20,0.00,,,0.00,WUHU216HW,2013-05-06 07:03:00,
2013-05-06 01:04:00,63.7,20.3,29.80,North,0,0.0,0.0,19,0.00,,,0.00,WUHU216HW,2013-05-06 07:04:00,
2013-05-06 01:05:00,63.7,20.3,29.80,North,0,0.0,0.0,19,0.00,,,0.00,WUHU216HW,2013-05-06 07:05:00,
2013-05-06 01:06:00,63.7,20.3,29.80,North,0,0.0,0.0,19,0.00,,,0.00,WUHU216HW,2013-05-06 07:06:00,
2013-05-06 01:08:00,63.7,20.3,29.81,North,0,0.0,0.0,19,0.00,,,0.00,WUHU216HW,2013-05-06 07:08:00,
2013-05-06 01:09:00,63.5,20.2,29.80,North,0,0.0,0.0,19,0.00,,,0.00,WUHU216HW,2013-05-06 07:09:00,
2013-05-06 01:10:00,63.5,20.2,29.80,North,0,0.0,0.0,19,0.00,,,0.00,WUHU216HW,2013-05-06 07:10:00,
2013-05-06 01:12:00,63.5,20.2,29.80,North,0,0.0,0.0,19,0.00,,,0.00,WUHU216HW,2013-05-06 07:12:00,
2013-05-06 01:14:00,63.5,20.2,29.80,North,0,0.0,0.0,19,0.00,,,0.00,WUHU216HW,2013-05-06 07:14:00,
2013-05-06 01:15:00,63.5,20.2,29.80,North,0,0.0,0.0,19,0.00,,,0.00,WUHU216HW,2013-05-06 07:15:00,
2013-05-06 01:17:00,63.4,20.1,29.80,North,0,0.0,0.0,19,0.00,,,0.00,WUHU216HW,2013-05-06 07:17:00,
2013-05-06 01:19:00,63.4,20.1,29.80,North,0,0.0,0.0,19,0.00,,,0.00,WUHU216HW,2013-05-06 07:19:00,
2013-05-06 01:21:00,63.2,19.9,29.80,North,0,0.0,0.0,19,0.00,,,0.00,WUHU216HW,2013-05-06 07:21:00,
2013-05-06 01:22:00,63.0,19.8,29.80,North,0,0.0,0.0,19,0.00,,,0.00,WUHU216HW,2013-05-06 07:22:00,
2013-05-06 01:24:00,62.8,19.6,29.80,North,0,0.0,0.0,19,0.00,,,0.00,WUHU216HW,2013-05-06 07:24:00,
2013-05-06 01:25:00,62.8,19.6,29.80,North,0,0.0,0.0,19,0.00,,,0.00,WUHU216HW,2013-05-06 07:25:00,
2013-05-06 01:26:00,62.6,19.5,29.79,North,0,0.0,0.0,19,0.00,,,0.00,WUHU216HW,2013-05-06 07:26:00,
2013-05-06 01:27:00,62.6,19.5,29.79,North,0,0.0,0.0,19,0.00,,,0.00,WUHU216HW,2013-05-06 07:27:00,
2013-05-06 01:29:00,62.5,19.4,29.79,North,0,0.0,0.0,19,0.00,,,0.00,WUHU216HW,2013-05-06 07:29:00,
2013-05-06 01:30:00,62.5,19.4,29.79,North,0,0.0,0.0,19,0.00,,,0.00,WUHU216HW,2013-05-06 07:30:00,
2013-05-06 01:31:00,62.5,19.4,29.79,North,0,0.0,0.0,19,0.00,,,0.00,WUHU216HW,2013-05-06 07:31:00,
2013-05-06 01:32:00,62.5,19.4,29.79,North,0,0.0,0.0,19,0.00,,,0.00,WUHU216HW,2013-05-06 07:32:00,
2013-05-06 01:34:00,62.3,19.2,29.79,North,0,0.0,0.0,19,0.00,,,0.00,WUHU216HW,2013-05-06 07:34:00,
2013-05-06 01:35:00,62.3,19.2,29.79,North,0,0.0,0.0,19,0.00,,,0.00,WUHU216HW,2013-05-06 07:35:00,
2013-05-06 01:36:00,62.3,19.2,29.79,North,0,0.0,0.0,19,0.00,,,0.00,WUHU216HW,2013-05-06 07:36:00,
2013-05-06 01:37:00,62.3,19.2,29.79,North,0,0.0,0.0,19,0.00,,,0.00,WUHU216HW,2013-05-06 07:37:00,
2013-05-06 01:38:00,62.3,19.2,29.79,North,0,0.0,0.0,19,0.00,,,0.00,WUHU216HW,2013-05-06 07:38:00,
2013-05-06 01:39:00,62.3,19.2,29.79,North,0,0.0,0.0,19,0.00,,,0.00,WUHU216HW,2013-05-06 07:39:00,
2013-05-06 01:40:00,62.1,19.1,29.79,North,0,0.0,0.0,19,0.00,,,0.00,WUHU216HW,2013-05-06 07:40:00,
2013-05-06 01:41:00,62.1,19.1,29.79,North,0,0.0,0.0,19,0.00,,,0.00,WUHU216HW,2013-05-06 07:41:00,
2013-05-06 01:42:00,62.1,19.1,29.79,North,0,0.0,0.0,19,0.00,,,0.00,WUHU216HW,2013-05-06 07:42:00,
2013-05-06 01:43:00,61.9,18.9,29.78,North,0,0.0,0.0,19,0.00,,,0.00,WUHU216HW,2013-05-06 07:43:00,
2013-05-06 01:44:00,61.9,18.9,29.78,North,0,0.0,0.0,19,0.00,,,0.00,WUHU216HW,2013-05-06 07:44:00,
2013-05-06 01:45:00,61.9,18.9,29.78,North,0,0.0,0.0,19,0.00,,,0.00,WUHU216HW,2013-05-06 07:45:00,
2013-05-06 01:46:00,61.7,18.8,29.78,North,0,0.0,0.0,19,0.00,,,0.00,WUHU216HW,2013-05-06 07:46:00,
2013-05-06 01:47:00,61.7,18.8,29.78,North,0,0.0,0.0,19,0.00,,,0.00,WUHU216HW,2013-05-06 07:47:00,
2013-05-06 01:48:00,61.6,18.6,29.78,North,0,0.0,0.0,19,0.00,,,0.00,WUHU216HW,2013-05-06 07:48:00,
2013-05-06 01:50:00,61.6,18.6,29.79,North,0,0.0,0.0,19,0.00,,,0.00,WUHU216HW,2013-05-06 07:50:00,
2013-05-06 01:52:00,61.6,18.6,29.79,North,0,0.0,0.0,19,0.00,,,0.00,WUHU216HW,2013-05-06 07:52:00,
2013-05-06 01:53:00,61.6,18.6,29.79,North,0,0.0,0.0,19,0.00,,,0.00,WUHU216HW,2013-05-06 07:53:00,
2013-05-06 01:55:00,61.6,18.6,29.79,North,0,0.0,0.0,19,0.00,,,0.00,WUHU216HW,2013-05-06 07:55:00,
2013-05-06 01:56:00,61.4,18.5,29.78,North,0,0.0,0.0,19,0.00,,,0.00,WUHU216HW,2013-05-06 07:56:00,
2013-05-06 01:57:00,61.4,18.5,29.79,North,0,0.0,0.0,19,0.00,,,0.00,WUHU216HW,2013-05-06 07:57:00,
2013-05-06 01:58:00,61.2,18.4,29.79,North,0,0.0,0.0,19,0.00,,,0.00,WUHU216HW,2013-05-06 07:58:00,
2013-05-06 02:00:00,61.2,18.4,29.79,North,0,0.0,0.0,19,0.00,,,0.00,WUHU216HW,2013-05-06 08:00:00,
2013-05-06 02:01:00,61.2,18.4,29.79,North,0,0.0,0.0,19,0.00,,,0.00,WUHU216HW,2013-05-06 08:01:00,
2013-05-06 02:03:00,61.0,18.2,29.78,North,0,0.0,0.0,19,0.00,,,0.00,WUHU216HW,2013-05-06 08:03:00,
2013-05-06 02:04:00,61.0,18.2,29.78,North,0,0.0,0.0,19,0.00,,,0.00,WUHU216HW,2013-05-06 08:04:00,
2013-05-06 02:05:00,61.0,18.2,29.79,North,0,0.0,0.0,19,0.00,,,0.00,WUHU216HW,2013-05-06 08:05:00,
2013-05-06 02:06:00,60.8,18.1,29.79,North,0,0.0,0.0,19,0.00,,,0.00,WUHU216HW,2013-05-06 08:06:00,
2013-05-06 02:08:00,60.8,18.1,29.79,North,0,0.0,0.0,19,0.00,,,0.00,WUHU216HW,2013-05-06 08:08:00,
2013-05-06 02:09:00,60.8,18.1,29.79,North,0,0.0,0.0,19,0.00,,,0.00,WUHU216HW,2013-05-06 08:09:00,
2013-05-06 02:10:00,60.8,19.6,29.79,North,0,0.0,0.0,20,0.00,,,0.00,WUHU216HW,2013-05-06 08:10:00,
2013-05-06 02:11:00,60.8,18.1,29.79,North,0,0.0,0.0,19,0.00,,,0.00,WUHU216HW,2013-05-06 08:11:00,
2013-05-06 02:13:00,60.8,18.1,29.79,North,0,0.0,0.0,19,0.00,,,0.00,WUHU216HW,2013-05-06 08:13:00,
2013-05-06 02:14:00,60.8,18.1,29.79,North,0,0.0,0.0,19,0.00,,,0.00,WUHU216HW,2013-05-06 08:14:00,
2013-05-06 02:15:00,60.7,17.9,29.79,North,0,0.0,0.0,19,0.00,,,0.00,WUHU216HW,2013-05-06 08:15:00,
2013-05-06 02:16:00,60.7,17.9,29.78,North,0,0.0,0.0,19,0.00,,,0.00,WUHU216HW,2013-05-06 08:16:00,
2013-05-06 02:18:00,60.8,18.1,29.78,North,0,0.0,0.0,19,0.00,,,0.00,WUHU216HW,2013-05-06 08:18:00,
2013-05-06 02:19:00,60.8,18.1,29.78,North,0,0.0,0.0,19,0.00,,,0.00,WUHU216HW,2013-05-06 08:19:00,
2013-05-06 02:20:00,60.8,18.1,29.78,North,0,0.0,0.0,19,0.00,,,0.00,WUHU216HW,2013-05-06 08:20:00,
2013-05-06 02:21:00,60.8,18.1,29.78,North,0,0.0,0.0,19,0.00,,,0.00,WUHU216HW,2013-05-06 08:21:00,
2013-05-06 02:23:00,61.0,18.2,29.78,North,0,0.0,0.0,19,0.00,,,0.00,WUHU216HW,2013-05-06 08:23:00,
2013-05-06 02:24:00,61.0,18.2,29.78,North,0,0.0,0.0,19,0.00,,,0.00,WUHU216HW,2013-05-06 08:24:00,
2013-05-06 02:25:00,61.0,18.2,29.78,North,0,0.0,0.0,19,0.00,,,0.00,WUHU216HW,2013-05-06 08:25:00,
2013-05-06 02:26:00,61.0,18.2,29.78,North,0,0.0,0.0,19,0.00,,,0.00,WUHU216HW,2013-05-06 08:26:00,
2013-05-06 02:27:00,61.0,18.2,29.78,North,0,0.0,0.0,19,0.00,,,0.00,WUHU216HW,2013-05-06 08:27:00,
2013-05-06 02:29:00,60.8,18.1,29.78,North,0,0.0,0.0,19,0.00,,,0.00,WUHU216HW,2013-05-06 08:29:00,
2013-05-06 02:30:00,60.8,18.1,29.78,North,0,0.0,0.0,19,0.00,,,0.00,WUHU216HW,2013-05-06 08:30:00,
2013-05-06 02:31:00,60.8,18.1,29.78,North,0,0.0,0.0,19,0.00,,,0.00,WUHU216HW,2013-05-06 08:31:00,
2013-05-06 02:32:00,60.8,18.1,29.78,North,0,0.0,0.0,19,0.00,,,0.00,WUHU216HW,2013-05-06 08:32:00,
2013-05-06 02:34:00,60.8,18.1,29.78,North,0,0.0,0.0,19,0.00,,,0.00,WUHU216HW,2013-05-06 08:34:00,
2013-05-06 02:35:00,60.7,17.9,29.78,North,0,0.0,0.0,19,0.00,,,0.00,WUHU216HW,2013-05-06 08:35:00,
2013-05-06 02:36:00,60.7,17.9,29.78,North,0,0.0,0.0,19,0.00,,,0.00,WUHU216HW,2013-05-06 08:36:00,
2013-05-06 02:38:00,60.5,17.7,29.78,North,0,0.0,0.0,19,0.00,,,0.00,WUHU216HW,2013-05-06 08:38:00,
2013-05-06 02:39:00,60.3,17.6,29.78,North,0,0.0,0.0,19,0.00,,,0.00,WUHU216HW,2013-05-06 08:39:00,
2013-05-06 02:41:00,60.3,19.2,29.78,North,0,0.0,0.0,20,0.00,,,0.00,WUHU216HW,2013-05-06 08:41:00,
2013-05-06 02:43:00,60.1,19.0,29.78,North,0,0.0,0.0,20,0.00,,,0.00,WUHU216HW,2013-05-06 08:43:00,
2013-05-06 02:44:00,60.1,19.0,29.78,North,0,0.0,0.0,20,0.00,,,0.00,WUHU216HW,2013-05-06 08:44:00,
2013-05-06 02:45:00,60.1,19.0,29.78,North,0,0.0,0.0,20,0.00,,,0.00,WUHU216HW,2013-05-06 08:45:00,
2013-05-06 02:46:00,59.9,19.8,29.78,North,0,0.0,0.0,21,0.00,,,0.00,WUHU216HW,2013-05-06 08:46:00,
2013-05-06 02:47:00,59.9,19.8,29.78,North,0,0.0,0.0,21,0.00,,,0.00,WUHU216HW,2013-05-06 08:47:00,
2013-05-06 02:48:00,59.9,19.8,29.78,North,0,0.0,0.0,21,0.00,,,0.00,WUHU216HW,2013-05-06 08:48:00,
2013-05-06 02:49:00,59.9,19.8,29.78,North,0,0.0,0.0,21,0.00,,,0.00,WUHU216HW,2013-05-06 08:49:00,
2013-05-06 02:50:00,59.9,19.8,29.78,North,0,0.0,0.0,21,0.00,,,0.00,WUHU216HW,2013-05-06 08:50:00,
2013-05-06 02:52:00,59.8,19.6,29.78,North,0,0.0,0.0,21,0.00,,,0.00,WUHU216HW,2013-05-06 08:52:00,
2013-05-06 02:53:00,59.8,19.6,29.78,North,0,0.0,0.0,21,0.00,,,0.00,WUHU216HW,2013-05-06 08:53:00,
2013-05-06 02:55:00,59.8,19.6,29.78,North,0,0.0,0.0,21,0.00,,,0.00,WUHU216HW,2013-05-06 08:55:00,
2013-05-06 02:56:00,59.8,19.6,29.78,North,0,0.0,0.0,21,0.00,,,0.00,WUHU216HW,2013-05-06 08:56:00,
2013-05-06 02:57:00,59.8,19.6,29.78,North,0,0.0,0.0,21,0.00,,,0.00,WUHU216HW,2013-05-06 08:57:00,
2013-05-06 02:58:00,59.8,19.6,29.78,North,0,0.0,0.0,21,0.00,,,0.00,WUHU216HW,2013-05-06 08:58:00,
2013-05-06 02:59:00,59.8,19.6,29.78,North,0,0.0,0.0,21,0.00,,,0.00,WUHU216HW,2013-05-06 08:59:00,
2013-05-06 03:00:00,59.8,19.6,29.78,North,0,0.0,0.0,21,0.00,,,0.00,WUHU216HW,2013-05-06 09:00:00,
2013-05-06 03:01:00,59.8,19.6,29.78,North,0,0.0,0.0,21,0.00,,,0.00,WUHU216HW,2013-05-06 09:01:00,
2013-05-06 03:02:00,59.8,19.6,29.78,North,0,0.0,0.0,21,0.00,,,0.00,WUHU216HW,2013-05-06 09:02:00,
2013-05-06 03:03:00,59.8,19.6,29.78,North,0,0.0,0.0,21,0.00,,,0.00,WUHU216HW,2013-05-06 09:03:00,
2013-05-06 03:04:00,59.8,19.6,29.78,North,0,0.0,0.0,21,0.00,,,0.00,WUHU216HW,2013-05-06 09:04:00,
2013-05-06 03:05:00,59.8,19.6,29.78,North,0,0.0,0.0,21,0.00,,,0.00,WUHU216HW,2013-05-06 09:05:00,
2013-05-06 03:07:00,59.8,19.6,29.78,North,0,0.0,0.0,21,0.00,,,0.00,WUHU216HW,2013-05-06 09:07:00,
2013-05-06 03:08:00,59.8,19.6,29.78,North,0,0.0,0.0,21,0.00,,,0.00,WUHU216HW,2013-05-06 09:08:00,
2013-05-06 03:09:00,59.8,19.6,29.78,North,0,0.0,0.0,21,0.00,,,0.00,WUHU216HW,2013-05-06 09:09:00,
2013-05-06 03:10:00,59.8,19.6,29.78,North,0,0.0,0.0,21,0.00,,,0.00,WUHU216HW,2013-05-06 09:10:00,
2013-05-06 03:12:00,59.8,19.6,29.78,North,0,0.0,0.0,21,0.00,,,0.00,WUHU216HW,2013-05-06 09:12:00,
2013-05-06 03:14:00,59.8,19.6,29.79,North,0,0.0,0.0,21,0.00,,,0.00,WUHU216HW,2013-05-06 09:14:00,
2013-05-06 03:15:00,59.8,19.6,29.79,North,0,0.0,0.0,21,0.00,,,0.00,WUHU216HW,2013-05-06 09:15:00,
2013-05-06 03:17:00,59.8,19.6,29.79,North,0,0.0,0.0,21,0.00,,,0.00,WUHU216HW,2013-05-06 09:17:00,
2013-05-06 03:18:00,59.8,19.6,29.79,North,0,0.0,0.0,21,0.00,,,0.00,WUHU216HW,2013-05-06 09:18:00,
2013-05-06 03:19:00,59.8,19.6,29.79,North,0,0.0,0.0,21,0.00,,,0.00,WUHU216HW,2013-05-06 09:19:00,
2013-05-06 03:20:00,59.8,19.6,29.78,North,0,0.0,0.0,21,0.00,,,0.00,WUHU216HW,2013-05-06 09:20:00,
2013-05-06 03:22:00,59.8,19.6,29.78,North,0,0.0,0.0,21,0.00,,,0.00,WUHU216HW,2013-05-06 09:22:00,
2013-05-06 03:23:00,59.8,19.6,29.78,North,0,0.0,0.0,21,0.00,,,0.00,WUHU216HW,2013-05-06 09:23:00,
2013-05-06 03:24:00,59.8,19.6,29.78,North,0,0.0,0.0,21,0.00,,,0.00,WUHU216HW,2013-05-06 09:24:00,
2013-05-06 03:25:00,59.8,19.6,29.78,North,0,0.0,0.0,21,0.00,,,0.00,WUHU216HW,2013-05-06 09:25:00,
2013-05-06 03:27:00,59.8,19.6,29.79,North,0,0.0,0.0,21,0.00,,,0.00,WUHU216HW,2013-05-06 09:27:00,
2013-05-06 03:28:00,59.8,19.6,29.79,North,0,0.0,0.0,21,0.00,,,0.00,WUHU216HW,2013-05-06 09:28:00,
2013-05-06 03:29:00,59.8,19.6,29.78,North,0,0.0,0.0,21,0.00,,,0.00,WUHU216HW,2013-05-06 09:29:00,
2013-05-06 03:30:00,59.6,19.4,29.79,North,0,0.0,0.0,21,0.00,,,0.00,WUHU216HW,2013-05-06 09:30:00,
2013-05-06 03:31:00,59.6,19.4,29.79,North,0,0.0,0.0,21,0.00,,,0.00,WUHU216HW,2013-05-06 09:31:00,
2013-05-06 03:32:00,59.8,19.6,29.78,North,0,0.0,0.0,21,0.00,,,0.00,WUHU216HW,2013-05-06 09:32:00,
2013-05-06 03:33:00,59.8,19.6,29.78,North,0,0.0,0.0,21,0.00,,,0.00,WUHU216HW,2013-05-06 09:33:00,
2013-05-06 03:35:00,59.8,19.6,29.78,North,0,0.0,0.0,21,0.00,,,0.00,WUHU216HW,2013-05-06 09:35:00,
2013-05-06 03:36:00,59.8,19.6,29.78,North,0,0.0,0.0,21,0.00,,,0.00,WUHU216HW,2013-05-06 09:36:00,
2013-05-06 03:37:00,59.8,19.6,29.79,North,0,0.0,0.0,21,0.00,,,0.00,WUHU216HW,2013-05-06 09:37:00,
2013-05-06 03:38:00,59.8,19.6,29.79,North,0,0.0,0.0,21,0.00,,,0.00,WUHU216HW,2013-05-06 09:38:00,
2013-05-06 03:40:00,59.9,19.8,29.79,North,0,0.0,0.0,21,0.00,,,0.00,WUHU216HW,2013-05-06 09:40:00,
2013-05-06 03:41:00,59.9,19.8,29.79,North,0,0.0,0.0,21,0.00,,,0.00,WUHU216HW,2013-05-06 09:41:00,
2013-05-06 03:43:00,59.9,19.8,29.79,North,0,0.0,0.0,21,0.00,,,0.00,WUHU216HW,2013-05-06 09:43:00,
2013-05-06 03:45:00,60.1,19.9,29.79,North,0,0.0,0.0,21,0.00,,,0.00,WUHU216HW,2013-05-06 09:45:00,
2013-05-06 03:46:00,60.1,19.9,29.79,North,0,0.0,0.0,21,0.00,,,0.00,WUHU216HW,2013-05-06 09:46:00,
2013-05-06 03:48:00,60.1,19.9,29.78,North,0,0.0,0.0,21,0.00,,,0.00,WUHU216HW,2013-05-06 09:48:00,
2013-05-06 03:50:00,59.8,19.6,29.79,North,0,0.0,0.0,21,0.00,,,0.00,WUHU216HW,2013-05-06 09:50:00,
2013-05-06 03:51:00,59.8,19.6,29.79,North,0,0.0,0.0,21,0.00,,,0.00,WUHU216HW,2013-05-06 09:51:00,
2013-05-06 03:53:00,59.6,19.4,29.78,North,0,0.0,0.0,21,0.00,,,0.00,WUHU216HW,2013-05-06 09:53:00,
2013-05-06 03:54:00,59.6,19.4,29.78,North,0,0.0,0.0,21,0.00,,,0.00,WUHU216HW,2013-05-06 09:54:00,
2013-05-06 03:55:00,59.4,19.3,29.78,North,0,0.0,0.0,21,0.00,,,0.00,WUHU216HW,2013-05-06 09:55:00,
2013-05-06 03:56:00,59.4,19.3,29.78,North,0,0.0,0.0,21,0.00,,,0.00,WUHU216HW,2013-05-06 09:56:00,
2013-05-06 03:58:00,59.4,19.3,29.78,North,0,0.0,0.0,21,0.00,,,0.00,WUHU216HW,2013-05-06 09:58:00,
2013-05-06 03:59:00,59.4,19.3,29.78,North,0,0.0,0.0,21,0.00,,,0.00,WUHU216HW,2013-05-06 09:59:00,
2013-05-06 04:00:00,59.2,19.2,29.78,North,0,0.0,0.0,21,0.00,,,0.00,WUHU216HW,2013-05-06 10:00:00,
2013-05-06 04:01:00,59.2,19.2,29.78,North,0,0.0,0.0,21,0.00,,,0.00,WUHU216HW,2013-05-06 10:01:00,
2013-05-06 04:02:00,59.2,19.2,29.78,North,0,0.0,0.0,21,0.00,,,0.00,WUHU216HW,2013-05-06 10:02:00,
2013-05-06 04:03:00,59.2,19.2,29.78,North,0,0.0,0.0,21,0.00,,,0.00,WUHU216HW,2013-05-06 10:03:00,
2013-05-06 04:04:00,59.2,19.2,29.78,North,0,0.0,0.0,21,0.00,,,0.00,WUHU216HW,2013-05-06 10:04:00,
2013-05-06 04:06:00,59.2,19.2,29.78,North,0,0.0,0.0,21,0.00,,,0.00,WUHU216HW,2013-05-06 10:06:00,
2013-05-06 04:07:00,59.2,19.2,29.78,North,0,0.0,0.0,21,0.00,,,0.00,WUHU216HW,2013-05-06 10:07:00,
2013-05-06 04:08:00,59.0,19.0,29.78,North,0,0.0,0.0,21,0.00,,,0.00,WUHU216HW,2013-05-06 10:08:00,
2013-05-06 04:09:00,59.0,19.0,29.78,North,0,0.0,0.0,21,0.00,,,0.00,WUHU216HW,2013-05-06 10:09:00,
2013-05-06 04:11:00,59.0,19.0,29.78,North,0,0.0,0.0,21,0.00,,,0.00,WUHU216HW,2013-05-06 10:11:00,
2013-05-06 04:12:00,59.0,19.0,29.78,North,0,0.0,0.0,21,0.00,,,0.00,WUHU216HW,2013-05-06 10:12:00,
2013-05-06 04:13:00,59.0,19.0,29.78,North,0,0.0,0.0,21,0.00,,,0.00,WUHU216HW,2013-05-06 10:13:00,
2013-05-06 04:14:00,59.0,19.0,29.78,North,0,0.0,0.0,21,0.00,,,0.00,WUHU216HW,2013-05-06 10:14:00,
2013-05-06 04:16:00,59.0,19.0,29.78,North,0,0.0,0.0,21,0.00,,,0.00,WUHU216HW,2013-05-06 10:16:00,
2013-05-06 04:18:00,59.0,19.0,29.78,North,0,0.0,0.0,21,0.00,,,0.00,WUHU216HW,2013-05-06 10:18:00,
2013-05-06 04:20:00,59.2,19.2,29.78,North,0,0.0,0.0,21,0.00,,,0.00,WUHU216HW,2013-05-06 10:20:00,
2013-05-06 04:21:00,59.2,19.2,29.78,North,0,0.0,0.0,21,0.00,,,0.00,WUHU216HW,2013-05-06 10:21:00,
2013-05-06 04:23:00,59.2,19.2,29.78,North,0,0.0,0.0,21,0.00,,,0.00,WUHU216HW,2013-05-06 10:23:00,
2013-05-06 04:25:00,59.2,19.2,29.78,North,0,0.0,0.0,21,0.00,,,0.00,WUHU216HW,2013-05-06 10:25:00,
2013-05-06 04:26:00,59.4,19.3,29.78,North,0,0.0,0.0,21,0.00,,,0.00,WUHU216HW,2013-05-06 10:26:00,
2013-05-06 04:27:00,59.4,19.3,29.78,North,0,0.0,0.0,21,0.00,,,0.00,WUHU216HW,2013-05-06 10:27:00,
2013-05-06 04:28:00,59.4,19.3,29.78,North,0,0.0,0.0,21,0.00,,,0.00,WUHU216HW,2013-05-06 10:28:00,
2013-05-06 04:30:00,59.4,19.3,29.78,North,0,0.0,0.0,21,0.00,,,0.00,WUHU216HW,2013-05-06 10:30:00,
2013-05-06 04:31:00,59.2,19.2,29.78,North,0,0.0,0.0,21,0.00,,,0.00,WUHU216HW,2013-05-06 10:31:00,
2013-05-06 04:32:00,59.2,19.2,29.78,North,0,0.0,0.0,21,0.00,,,0.00,WUHU216HW,2013-05-06 10:32:00,
2013-05-06 04:33:00,59.2,19.2,29.78,North,0,0.0,0.0,21,0.00,,,0.00,WUHU216HW,2013-05-06 10:33:00,
2013-05-06 04:35:00,59.2,19.2,29.78,North,0,0.0,0.0,21,0.00,,,0.00,WUHU216HW,2013-05-06 10:35:00,
2013-05-06 04:36:00,59.2,19.2,29.78,North,0,0.0,0.0,21,0.00,,,0.00,WUHU216HW,2013-05-06 10:36:00,
2013-05-06 04:38:00,59.2,19.2,29.78,North,0,0.0,0.0,21,0.00,,,0.00,WUHU216HW,2013-05-06 10:38:00,
2013-05-06 04:39:00,59.2,19.2,29.78,North,0,0.0,0.0,21,0.00,,,0.00,WUHU216HW,2013-05-06 10:39:00,
2013-05-06 04:40:00,59.0,19.0,29.77,North,0,0.0,0.0,21,0.00,,,0.00,WUHU216HW,2013-05-06 10:40:00,
2013-05-06 04:42:00,59.0,19.0,29.78,North,0,0.0,0.0,21,0.00,,,0.00,WUHU216HW,2013-05-06 10:42:00,
2013-05-06 04:43:00,59.0,19.0,29.78,North,0,0.0,0.0,21,0.00,,,0.00,WUHU216HW,2013-05-06 10:43:00,
2013-05-06 04:44:00,59.0,19.0,29.78,North,0,0.0,0.0,21,0.00,,,0.00,WUHU216HW,2013-05-06 10:44:00,
2013-05-06 04:45:00,59.0,19.0,29.78,North,0,0.0,0.0,21,0.00,,,0.00,WUHU216HW,2013-05-06 10:45:00,
2013-05-06 04:47:00,59.2,19.2,29.77,North,0,0.0,0.0,21,0.00,,,0.00,WUHU216HW,2013-05-06 10:47:00,
2013-05-06 04:48:00,59.2,19.2,29.77,North,0,0.0,0.0,21,0.00,,,0.00,WUHU216HW,2013-05-06 10:48:00,
2013-05-06 04:49:00,59.2,19.2,29.77,North,0,0.0,0.0,21,0.00,,,0.00,WUHU216HW,2013-05-06 10:49:00,
2013-05-06 04:51:00,59.2,19.2,29.78,North,0,0.0,0.0,21,0.00,,,0.00,WUHU216HW,2013-05-06 10:51:00,
2013-05-06 04:52:00,59.2,19.2,29.77,North,0,0.0,0.0,21,0.00,,,0.00,WUHU216HW,2013-05-06 10:52:00,
2013-05-06 04:53:00,59.4,19.3,29.77,North,0,0.0,0.0,21,0.00,,,0.00,WUHU216HW,2013-05-06 10:53:00,
2013-05-06 04:54:00,59.4,19.3,29.77,North,0,0.0,0.0,21,0.00,,,0.00,WUHU216HW,2013-05-06 10:54:00,
2013-05-06 04:56:00,59.4,19.3,29.77,North,0,0.0,0.0,21,0.00,,,0.00,WUHU216HW,2013-05-06 10:56:00,
2013-05-06 04:57:00,59.4,19.3,29.77,North,0,0.0,0.0,21,0.00,,,0.00,WUHU216HW,2013-05-06 10:57:00,
2013-05-06 04:58:00,59.4,19.3,29.77,North,0,0.0,0.0,21,0.00,,,0.00,WUHU216HW,2013-05-06 10:58:00,
2013-05-06 04:59:00,59.4,19.3,29.77,North,0,0.0,0.0,21,0.00,,,0.00,WUHU216HW,2013-05-06 10:59:00,
2013-05-06 05:02:00,59.6,19.4,29.77,North,0,0.0,0.0,21,0.00,,,0.00,WUHU216HW,2013-05-06 11:02:00,
2013-05-06 05:03:00,59.6,19.4,29.77,North,0,0.0,0.0,21,0.00,,,0.00,WUHU216HW,2013-05-06 11:03:00,
2013-05-06 05:04:00,59.4,19.3,29.77,North,0,0.0,0.0,21,0.00,,,0.00,WUHU216HW,2013-05-06 11:04:00,
2013-05-06 05:05:00,59.4,19.3,29.77,North,0,0.0,0.0,21,0.00,,,0.00,WUHU216HW,2013-05-06 11:05:00,
2013-05-06 05:07:00,59.4,19.3,29.77,North,0,0.0,0.0,21,0.00,,,0.00,WUHU216HW,2013-05-06 11:07:00,
2013-05-06 05:09:00,59.4,19.3,29.77,North,0,0.0,0.0,21,0.00,,,0.00,WUHU216HW,2013-05-06 11:09:00,
2013-05-06 05:10:00,59.4,19.3,29.77,North,0,0.0,0.0,21,0.00,,,0.00,WUHU216HW,2013-05-06 11:10:00,
2013-05-06 05:12:00,59.4,19.3,29.77,North,0,0.0,0.0,21,0.00,,,0.00,WUHU216HW,2013-05-06 11:12:00,
2013-05-06 05:14:00,59.4,19.3,29.77,North,0,0.0,0.0,21,0.00,,,0.00,WUHU216HW,2013-05-06 11:14:00,
2013-05-06 05:15:00,59.4,19.3,29.77,North,0,0.0,0.0,21,0.00,,,0.00,WUHU216HW,2013-05-06 11:15:00,
2013-05-06 05:17:00,59.4,19.3,29.77,North,0,0.0,0.0,21,0.00,,,0.00,WUHU216HW,2013-05-06 11:17:00,
2013-05-06 05:19:00,59.4,19.3,29.77,North,0,0.0,0.0,21,0.00,,,0.00,WUHU216HW,2013-05-06 11:19:00,
2013-05-06 05:20:00,59.4,19.3,29.77,North,0,0.0,0.0,21,0.00,,,0.00,WUHU216HW,2013-05-06 11:20:00,
2013-05-06 05:23:00,59.2,19.2,29.77,North,0,0.0,0.0,21,0.00,,,0.00,WUHU216HW,2013-05-06 11:23:00,
2013-05-06 05:24:00,59.2,19.2,29.77,North,0,0.0,0.0,21,0.00,,,0.00,WUHU216HW,2013-05-06 11:24:00,
2013-05-06 05:25:00,59.2,19.2,29.77,North,0,0.0,0.0,21,0.00,,,0.00,WUHU216HW,2013-05-06 11:25:00,
2013-05-06 05:28:00,59.2,19.2,29.77,North,0,0.0,0.0,21,0.00,,,0.00,WUHU216HW,2013-05-06 11:28:00,
2013-05-06 05:30:00,59.2,19.2,29.77,North,0,0.0,0.0,21,0.00,,,0.00,WUHU216HW,2013-05-06 11:30:00,
2013-05-06 05:31:00,59.2,19.2,29.77,North,0,0.0,0.0,21,0.00,,,0.00,WUHU216HW,2013-05-06 11:31:00,
2013-05-06 05:33:00,59.2,19.2,29.77,North,0,0.0,0.0,21,0.00,,,0.00,WUHU216HW,2013-05-06 11:33:00,
2013-05-06 05:35:00,59.0,19.0,29.77,North,0,0.0,0.0,21,0.00,,,0.00,WUHU216HW,2013-05-06 11:35:00,
2013-05-06 05:36:00,59.0,19.0,29.77,North,0,0.0,0.0,21,0.00,,,0.00,WUHU216HW,2013-05-06 11:36:00,
2013-05-06 05:38:00,59.0,19.0,29.77,North,0,0.0,0.0,21,0.00,,,0.00,WUHU216HW,2013-05-06 11:38:00,
2013-05-06 05:39:00,59.0,19.0,29.77,North,0,0.0,0.0,21,0.00,,,0.00,WUHU216HW,2013-05-06 11:39:00,
2013-05-06 05:40:00,59.0,19.0,29.77,North,0,0.0,0.0,21,0.00,,,0.00,WUHU216HW,2013-05-06 11:40:00,
2013-05-06 05:41:00,59.0,19.0,29.77,North,0,0.0,0.0,21,0.00,,,0.00,WUHU216HW,2013-05-06 11:41:00,
2013-05-06 05:43:00,59.0,18.0,29.77,North,0,0.0,0.0,20,0.00,,,0.00,WUHU216HW,2013-05-06 11:43:00,
2013-05-06 05:44:00,59.0,18.0,29.77,North,0,0.0,0.0,20,0.00,,,0.00,WUHU216HW,2013-05-06 11:44:00,
2013-05-06 05:45:00,58.9,17.8,29.77,North,0,0.0,0.0,20,0.00,,,0.00,WUHU216HW,2013-05-06 11:45:00,
2013-05-06 05:46:00,58.9,18.8,29.77,North,0,0.0,0.0,21,0.00,,,0.00,WUHU216HW,2013-05-06 11:46:00,
2013-05-06 05:48:00,58.9,18.8,29.77,North,0,0.0,0.0,21,0.00,,,0.00,WUHU216HW,2013-05-06 11:48:00,
2013-05-06 05:49:00,58.9,18.8,29.77,North,0,0.0,0.0,21,0.00,,,0.00,WUHU216HW,2013-05-06 11:49:00,
2013-05-06 05:51:00,58.9,18.8,29.77,North,0,0.0,0.0,21,0.00,,,0.00,WUHU216HW,2013-05-06 11:51:00,
2013-05-06 05:52:00,58.7,18.7,29.76,North,0,0.0,0.0,21,0.00,,,0.00,WUHU216HW,2013-05-06 11:52:00,
2013-05-06 05:54:00,58.7,18.7,29.76,North,0,0.0,0.0,21,0.00,,,0.00,WUHU216HW,2013-05-06 11:54:00,
2013-05-06 05:56:00,58.7,18.7,29.77,North,0,0.0,0.0,21,0.00,,,0.00,WUHU216HW,2013-05-06 11:56:00,
2013-05-06 05:57:00,58.7,18.7,29.76,North,0,0.0,0.0,21,0.00,,,0.00,WUHU216HW,2013-05-06 11:57:00,
2013-05-06 05:59:00,58.7,18.7,29.76,North,0,0.0,0.0,21,0.00,,,0.00,WUHU216HW,2013-05-06 11:59:00,
2013-05-06 06:00:00,58.7,18.7,29.76,North,0,0.0,0.0,21,0.00,,,0.00,WUHU216HW,2013-05-06 12:00:00,
2013-05-06 06:01:00,58.7,18.7,29.76,North,0,0.0,0.0,21,0.00,,,0.00,WUHU216HW,2013-05-06 12:01:00,
2013-05-06 06:03:00,58.7,18.7,29.76,North,0,0.0,0.0,21,0.00,,,0.00,WUHU216HW,2013-05-06 12:03:00,
2013-05-06 06:04:00,58.7,18.7,29.76,North,0,0.0,0.0,21,0.00,,,0.00,WUHU216HW,2013-05-06 12:04:00,
2013-05-06 06:05:00,58.7,18.7,29.76,North,0,0.0,0.0,21,0.00,,,0.00,WUHU216HW,2013-05-06 12:05:00,
2013-05-06 06:06:00,58.7,18.7,29.76,North,0,0.0,0.0,21,0.00,,,0.00,WUHU216HW,2013-05-06 12:06:00,
2013-05-06 06:07:00,58.7,18.7,29.76,North,0,0.0,0.0,21,0.00,,,0.00,WUHU216HW,2013-05-06 12:07:00,
2013-05-06 06:08:00,58.7,18.7,29.75,North,0,0.0,0.0,21,0.00,,,0.00,WUHU216HW,2013-05-06 12:08:00,
2013-05-06 06:09:00,58.7,18.7,29.75,North,0,0.0,0.0,21,0.00,,,0.00,WUHU216HW,2013-05-06 12:09:00,
2013-05-06 06:10:00,58.7,18.7,29.75,North,0,0.0,0.0,21,0.00,,,0.00,WUHU216HW,2013-05-06 12:10:00,
2013-05-06 06:11:00,58.7,18.7,29.76,North,0,0.0,0.0,21,0.00,,,0.00,WUHU216HW,2013-05-06 12:11:00,
2013-05-06 06:12:00,58.7,18.7,29.76,North,0,0.0,0.0,21,0.00,,,0.00,WUHU216HW,2013-05-06 12:12:00,
2013-05-06 06:13:00,58.7,18.7,29.76,North,0,0.0,0.0,21,0.00,,,0.00,WUHU216HW,2013-05-06 12:13:00,
2013-05-06 06:14:00,58.7,18.7,29.75,North,0,0.0,0.0,21,0.00,,,0.00,WUHU216HW,2013-05-06 12:14:00,
2013-05-06 06:15:00,58.7,18.7,29.75,North,0,0.0,0.0,21,0.00,,,0.00,WUHU216HW,2013-05-06 12:15:00,
2013-05-06 06:16:00,58.7,18.7,29.76,North,0,0.0,0.0,21,0.00,,,0.00,WUHU216HW,2013-05-06 12:16:00,
2013-05-06 06:17:00,58.7,18.7,29.76,North,0,0.0,0.0,21,0.00,,,0.00,WUHU216HW,2013-05-06 12:17:00,
2013-05-06 06:18:00,58.7,18.7,29.76,North,0,0.0,0.0,21,0.00,,,0.00,WUHU216HW,2013-05-06 12:18:00,
2013-05-06 06:19:00,58.7,18.7,29.76,North,0,0.0,0.0,21,0.00,,,0.00,WUHU216HW,2013-05-06 12:19:00,
2013-05-06 06:20:00,58.5,18.6,29.76,North,0,0.0,0.0,21,0.00,,,0.00,WUHU216HW,2013-05-06 12:20:00,
2013-05-06 06:21:00,58.5,18.6,29.76,North,0,0.0,0.0,21,0.00,,,0.00,WUHU216HW,2013-05-06 12:21:00,
2013-05-06 06:22:00,58.5,18.6,29.76,North,0,0.0,0.0,21,0.00,,,0.00,WUHU216HW,2013-05-06 12:22:00,
2013-05-06 06:24:00,58.5,18.6,29.76,North,0,0.0,0.0,21,0.00,,,0.00,WUHU216HW,2013-05-06 12:24:00,
2013-05-06 06:25:00,58.3,18.4,29.76,North,0,0.0,0.0,21,0.00,,,0.00,WUHU216HW,2013-05-06 12:25:00,
2013-05-06 06:27:00,58.3,18.4,29.77,North,0,0.0,0.0,21,0.00,,,0.00,WUHU216HW,2013-05-06 12:27:00,
2013-05-06 06:29:00,58.3,18.4,29.77,North,0,0.0,0.0,21,0.00,,,0.00,WUHU216HW,2013-05-06 12:29:00,
2013-05-06 06:30:00,58.1,18.3,29.77,North,0,0.0,0.0,21,0.00,,,0.00,WUHU216HW,2013-05-06 12:30:00,
2013-05-06 06:32:00,58.1,18.3,29.77,North,0,0.0,0.0,21,0.00,,,0.00,WUHU216HW,2013-05-06 12:32:00,
2013-05-06 06:33:00,58.1,19.2,29.77,North,0,0.0,0.0,22,0.00,,,0.00,WUHU216HW,2013-05-06 12:33:00,
2013-05-06 06:34:00,58.1,19.2,29.77,North,0,0.0,0.0,22,0.00,,,0.00,WUHU216HW,2013-05-06 12:34:00,
2013-05-06 06:35:00,58.1,19.2,29.77,North,0,0.0,0.0,22,0.00,,,0.00,WUHU216HW,2013-05-06 12:35:00,
2013-05-06 06:36:00,58.1,18.3,29.77,North,0,0.0,0.0,21,0.00,,,0.00,WUHU216HW,2013-05-06 12:36:00,
2013-05-06 06:37:00,58.1,19.2,29.77,North,0,0.0,0.0,22,0.00,,,0.00,WUHU216HW,2013-05-06 12:37:00,
2013-05-06 06:38:00,58.0,19.1,29.77,North,0,0.0,0.0,22,0.00,,,0.00,WUHU216HW,2013-05-06 12:38:00,
2013-05-06 06:39:00,58.0,19.1,29.77,North,0,0.0,0.0,22,0.00,,,0.00,WUHU216HW,2013-05-06 12:39:00,
2013-05-06 06:40:00,58.0,19.1,29.77,North,0,0.0,0.0,22,0.00,,,0.00,WUHU216HW,2013-05-06 12:40:00,
2013-05-06 06:41:00,58.0,19.1,29.77,North,0,0.0,0.0,22,0.00,,,0.00,WUHU216HW,2013-05-06 12:41:00,
2013-05-06 06:43:00,58.0,19.1,29.77,North,0,0.0,0.0,22,0.00,,,0.00,WUHU216HW,2013-05-06 12:43:00,
2013-05-06 06:44:00,58.0,19.1,29.77,North,0,0.0,0.0,22,0.00,,,0.00,WUHU216HW,2013-05-06 12:44:00,
2013-05-06 06:45:00,58.1,19.2,29.77,North,0,0.0,0.0,22,0.00,,,0.00,WUHU216HW,2013-05-06 12:45:00,
2013-05-06 06:46:00,58.0,19.1,29.77,North,0,0.0,0.0,22,0.00,,,0.00,WUHU216HW,2013-05-06 12:46:00,
2013-05-06 06:48:00,58.0,19.1,29.77,North,0,0.0,0.0,22,0.00,,,0.00,WUHU216HW,2013-05-06 12:48:00,
2013-05-06 06:49:00,58.0,19.1,29.77,North,0,0.0,0.0,22,0.00,,,0.00,WUHU216HW,2013-05-06 12:49:00,
2013-05-06 06:50:00,58.1,18.3,29.77,North,0,0.0,0.0,21,0.00,,,0.00,WUHU216HW,2013-05-06 12:50:00,
2013-05-06 06:52:00,58.1,19.2,29.77,North,0,0.0,0.0,22,0.00,,,0.00,WUHU216HW,2013-05-06 12:52:00,
2013-05-06 06:53:00,58.1,19.2,29.77,North,0,0.0,0.0,22,0.00,,,0.00,WUHU216HW,2013-05-06 12:53:00,
2013-05-06 06:54:00,58.1,19.2,29.77,North,0,0.0,0.0,22,0.00,,,0.00,WUHU216HW,2013-05-06 12:54:00,
2013-05-06 06:55:00,58.3,19.4,29.77,North,0,0.0,0.0,22,0.00,,,0.00,WUHU216HW,2013-05-06 12:55:00,
2013-05-06 06:57:00,58.3,19.4,29.77,North,0,0.0,0.0,22,0.00,,,0.00,WUHU216HW,2013-05-06 12:57:00,
2013-05-06 06:58:00,58.3,19.4,29.78,North,0,0.0,0.0,22,0.00,,,0.00,WUHU216HW,2013-05-06 12:58:00,
2013-05-06 06:59:00,58.3,19.4,29.77,North,0,0.0,0.0,22,0.00,,,0.00,WUHU216HW,2013-05-06 12:59:00,
2013-05-06 07:01:00,58.3,19.4,29.77,North,0,0.0,0.0,22,0.00,,,0.00,WUHU216HW,2013-05-06 13:01:00,
2013-05-06 07:02:00,58.3,19.4,29.77,North,0,0.0,0.0,22,0.00,,,0.00,WUHU216HW,2013-05-06 13:02:00,
2013-05-06 07:03:00,58.3,19.4,29.77,North,0,0.0,0.0,22,0.00,,,0.00,WUHU216HW,2013-05-06 13:03:00,
2013-05-06 07:04:00,58.5,19.5,29.77,North,0,0.0,0.0,22,0.00,,,0.00,WUHU216HW,2013-05-06 13:04:00,
2013-05-06 07:05:00,58.3,19.4,29.77,North,0,0.0,0.0,22,0.00,,,0.00,WUHU216HW,2013-05-06 13:05:00,
2013-05-06 07:06:00,58.3,19.4,29.77,North,0,0.0,0.0,22,0.00,,,0.00,WUHU216HW,2013-05-06 13:06:00,
2013-05-06 07:07:00,58.5,19.5,29.77,North,0,0.0,0.0,22,0.00,,,0.00,WUHU216HW,2013-05-06 13:07:00,
2013-05-06 07:08:00,58.5,19.5,29.77,North,0,0.0,0.0,22,0.00,,,0.00,WUHU216HW,2013-05-06 13:08:00,
2013-05-06 07:09:00,58.5,19.5,29.77,North,0,0.0,0.0,22,0.00,,,0.00,WUHU216HW,2013-05-06 13:09:00,
2013-05-06 07:10:00,58.5,19.5,29.77,North,0,0.0,0.0,22,0.00,,,0.00,WUHU216HW,2013-05-06 13:10:00,
2013-05-06 07:11:00,58.7,19.6,29.77,North,0,0.0,0.0,22,0.00,,,0.00,WUHU216HW,2013-05-06 13:11:00,
2013-05-06 07:12:00,58.7,19.6,29.77,North,0,0.0,0.0,22,0.00,,,0.00,WUHU216HW,2013-05-06 13:12:00,
2013-05-06 07:13:00,58.7,19.6,29.77,North,0,0.0,0.0,22,0.00,,,0.00,WUHU216HW,2013-05-06 13:13:00,
2013-05-06 07:15:00,58.7,19.6,29.78,North,0,0.0,0.0,22,0.00,,,0.00,WUHU216HW,2013-05-06 13:15:00,
2013-05-06 07:16:00,58.7,19.6,29.78,North,0,0.0,0.0,22,0.00,,,0.00,WUHU216HW,2013-05-06 13:16:00,
2013-05-06 07:17:00,58.7,19.6,29.78,North,0,0.0,0.0,22,0.00,,,0.00,WUHU216HW,2013-05-06 13:17:00,
2013-05-06 07:19:00,58.9,19.8,29.78,North,0,0.0,0.0,22,0.00,,,0.00,WUHU216HW,2013-05-06 13:19:00,
2013-05-06 07:20:00,58.9,19.8,29.78,North,0,0.0,0.0,22,0.00,,,0.00,WUHU216HW,2013-05-06 13:20:00,
2013-05-06 07:21:00,58.9,19.8,29.78,North,0,0.0,0.0,22,0.00,,,0.00,WUHU216HW,2013-05-06 13:21:00,
2013-05-06 07:22:00,59.0,20.0,29.78,North,0,0.0,0.0,22,0.00,,,0.00,WUHU216HW,2013-05-06 13:22:00,
2013-05-06 07:24:00,59.0,20.0,29.78,North,0,0.0,0.0,22,0.00,,,0.00,WUHU216HW,2013-05-06 13:24:00,
2013-05-06 07:25:00,59.0,20.0,29.78,North,0,0.0,0.0,22,0.00,,,0.00,WUHU216HW,2013-05-06 13:25:00,
2013-05-06 07:26:00,59.0,20.0,29.78,North,0,0.0,0.0,22,0.00,,,0.00,WUHU216HW,2013-05-06 13:26:00,
2013-05-06 07:28:00,59.0,20.0,29.78,North,0,0.0,0.0,22,0.00,,,0.00,WUHU216HW,2013-05-06 13:28:00,
2013-05-06 07:29:00,59.2,20.1,29.78,North,0,0.0,0.0,22,0.00,,,0.00,WUHU216HW,2013-05-06 13:29:00,
2013-05-06 07:30:00,59.4,20.3,29.78,North,0,0.0,0.0,22,0.00,,,0.00,WUHU216HW,2013-05-06 13:30:00,
2013-05-06 07:31:00,59.4,20.3,29.78,North,0,0.0,0.0,22,0.00,,,0.00,WUHU216HW,2013-05-06 13:31:00,
2013-05-06 07:34:00,59.4,20.3,29.79,North,0,0.0,0.0,22,0.00,,,0.00,WUHU216HW,2013-05-06 13:34:00,
2013-05-06 07:35:00,59.4,20.3,29.79,North,0,0.0,0.0,22,0.00,,,0.00,WUHU216HW,2013-05-06 13:35:00,
2013-05-06 07:36:00,59.4,20.3,29.79,North,0,0.0,0.0,22,0.00,,,0.00,WUHU216HW,2013-05-06 13:36:00,
2013-05-06 07:39:00,59.4,20.3,29.79,North,0,0.0,0.0,22,0.00,,,0.00,WUHU216HW,2013-05-06 13:39:00,
2013-05-06 07:41:00,59.4,20.3,29.79,North,0,0.0,0.0,22,0.00,,,0.00,WUHU216HW,2013-05-06 13:41:00,
2013-05-06 07:44:00,59.6,20.4,29.79,North,0,0.0,0.0,22,0.00,,,0.00,WUHU216HW,2013-05-06 13:44:00,
2013-05-06 07:45:00,59.6,20.4,29.79,North,0,0.0,0.0,22,0.00,,,0.00,WUHU216HW,2013-05-06 13:45:00,
2013-05-06 07:46:00,59.6,20.4,29.79,North,0,0.0,0.0,22,0.00,,,0.00,WUHU216HW,2013-05-06 13:46:00,
2013-05-06 07:50:00,59.8,20.6,29.79,North,0,0.0,0.0,22,0.00,,,0.00,WUHU216HW,2013-05-06 13:50:00,
2013-05-06 07:51:00,59.8,20.6,29.79,North,0,0.0,0.0,22,0.00,,,0.00,WUHU216HW,2013-05-06 13:51:00,
2013-05-06 07:52:00,59.8,20.6,29.79,North,0,0.0,0.0,22,0.00,,,0.00,WUHU216HW,2013-05-06 13:52:00,
2013-05-06 07:55:00,59.9,20.7,29.79,North,0,0.0,0.0,22,0.00,,,0.00,WUHU216HW,2013-05-06 13:55:00,
2013-05-06 07:56:00,59.9,20.7,29.79,North,0,0.0,0.0,22,0.00,,,0.00,WUHU216HW,2013-05-06 13:56:00,
2013-05-06 07:57:00,59.9,20.7,29.79,North,0,0.0,0.0,22,0.00,,,0.00,WUHU216HW,2013-05-06 13:57:00,
2013-05-06 08:00:00,60.1,20.9,29.79,North,0,0.0,0.0,22,0.00,,,0.00,WUHU216HW,2013-05-06 14:00:00,
2013-05-06 08:01:00,60.1,20.9,29.79,North,0,0.0,0.0,22,0.00,,,0.00,WUHU216HW,2013-05-06 14:01:00,
2013-05-06 08:02:00,60.1,20.9,29.79,North,0,0.0,0.0,22,0.00,,,0.00,WUHU216HW,2013-05-06 14:02:00,
2013-05-06 08:06:00,60.1,20.9,29.79,North,0,0.0,0.0,22,0.00,,,0.00,WUHU216HW,2013-05-06 14:06:00,
2013-05-06 08:07:00,60.1,20.9,29.80,North,0,0.0,0.0,22,0.00,,,0.00,WUHU216HW,2013-05-06 14:07:00,
2013-05-06 08:08:00,60.1,20.9,29.80,North,0,0.0,0.0,22,0.00,,,0.00,WUHU216HW,2013-05-06 14:08:00,
2013-05-06 08:11:00,60.1,21.9,29.80,North,0,0.0,0.0,23,0.00,,,0.00,WUHU216HW,2013-05-06 14:11:00,
2013-05-06 08:12:00,60.3,21.1,29.80,North,0,0.0,0.0,22,0.00,,,0.00,WUHU216HW,2013-05-06 14:12:00,
2013-05-06 08:13:00,60.3,21.1,29.80,North,0,0.0,0.0,22,0.00,,,0.00,WUHU216HW,2013-05-06 14:13:00,
2013-05-06 08:16:00,60.3,22.1,29.80,North,0,0.0,0.0,23,0.00,,,0.00,WUHU216HW,2013-05-06 14:16:00,
2013-05-06 08:17:00,60.5,21.3,29.80,North,0,0.0,0.0,22,0.00,,,0.00,WUHU216HW,2013-05-06 14:17:00,
2013-05-06 08:18:00,60.5,21.3,29.80,North,0,0.0,0.0,22,0.00,,,0.00,WUHU216HW,2013-05-06 14:18:00,
2013-05-06 08:21:00,60.5,21.3,29.80,North,0,0.0,0.0,22,0.00,,,0.00,WUHU216HW,2013-05-06 14:21:00,
2013-05-06 08:22:00,60.7,21.3,29.80,North,0,0.0,0.0,22,0.00,,,0.00,WUHU216HW,2013-05-06 14:22:00,
2013-05-06 08:23:00,60.7,21.3,29.80,North,0,0.0,0.0,22,0.00,,,0.00,WUHU216HW,2013-05-06 14:23:00,
2013-05-06 08:26:00,60.7,21.3,29.80,North,0,0.0,0.0,22,0.00,,,0.00,WUHU216HW,2013-05-06 14:26:00,
2013-05-06 08:27:00,60.8,21.5,29.80,North,0,0.0,0.0,22,0.00,,,0.00,WUHU216HW,2013-05-06 14:27:00,
2013-05-06 08:28:00,60.8,21.5,29.80,North,0,0.0,0.0,22,0.00,,,0.00,WUHU216HW,2013-05-06 14:28:00,
2013-05-06 08:29:00,60.8,21.5,29.80,North,0,0.0,0.0,22,0.00,,,0.00,WUHU216HW,2013-05-06 14:29:00,
2013-05-06 08:31:00,61.0,21.7,29.80,North,0,0.0,0.0,22,0.00,,,0.00,WUHU216HW,2013-05-06 14:31:00,
2013-05-06 08:32:00,61.0,21.7,29.80,North,0,0.0,0.0,22,0.00,,,0.00,WUHU216HW,2013-05-06 14:32:00,
2013-05-06 08:33:00,61.0,21.7,29.80,North,0,0.0,0.0,22,0.00,,,0.00,WUHU216HW,2013-05-06 14:33:00,
2013-05-06 08:34:00,61.2,21.8,29.80,North,0,0.0,0.0,22,0.00,,,0.00,WUHU216HW,2013-05-06 14:34:00,
2013-05-06 08:36:00,61.4,22.0,29.80,North,0,0.0,0.0,22,0.00,,,0.00,WUHU216HW,2013-05-06 14:36:00,
2013-05-06 08:37:00,61.6,22.2,29.81,North,0,0.0,0.0,22,0.00,,,0.00,WUHU216HW,2013-05-06 14:37:00,
2013-05-06 08:38:00,61.6,22.2,29.81,North,0,0.0,0.0,22,0.00,,,0.00,WUHU216HW,2013-05-06 14:38:00,
2013-05-06 08:39:00,61.7,22.2,29.80,North,0,0.0,0.0,22,0.00,,,0.00,WUHU216HW,2013-05-06 14:39:00,
2013-05-06 08:41:00,61.9,22.4,29.80,North,0,0.0,0.0,22,0.00,,,0.00,WUHU216HW,2013-05-06 14:41:00,
2013-05-06 08:43:00,61.9,22.4,29.80,North,0,0.0,0.0,22,0.00,,,0.00,WUHU216HW,2013-05-06 14:43:00,
2013-05-06 08:44:00,62.3,23.7,29.80,North,0,0.0,0.0,23,0.00,,,0.00,WUHU216HW,2013-05-06 14:44:00,
2013-05-06 08:46:00,62.6,23.9,29.80,North,0,0.0,0.0,23,0.00,,,0.00,WUHU216HW,2013-05-06 14:46:00,
2013-05-06 08:48:00,63.0,24.3,29.80,North,0,0.0,0.0,23,0.00,,,0.00,WUHU216HW,2013-05-06 14:48:00,
2013-05-06 08:49:00,63.0,24.3,29.81,North,0,0.0,0.0,23,0.00,,,0.00,WUHU216HW,2013-05-06 14:49:00,
2013-05-06 08:52:00,63.5,24.8,29.81,North,0,0.0,0.0,23,0.00,,,0.00,WUHU216HW,2013-05-06 14:52:00,
2013-05-06 08:53:00,63.7,23.9,29.81,North,0,0.0,0.0,22,0.00,,,0.00,WUHU216HW,2013-05-06 14:53:00,
2013-05-06 08:54:00,63.7,23.9,29.81,North,0,0.0,0.0,22,0.00,,,0.00,WUHU216HW,2013-05-06 14:54:00,
2013-05-06 08:55:00,63.7,23.9,29.80,North,0,0.0,0.0,22,0.00,,,0.00,WUHU216HW,2013-05-06 14:55:00,
2013-05-06 08:57:00,63.9,24.0,29.80,North,0,0.0,0.0,22,0.00,,,0.00,WUHU216HW,2013-05-06 14:57:00,
2013-05-06 08:58:00,63.9,24.0,29.81,North,0,0.0,0.0,22,0.00,,,0.00,WUHU216HW,2013-05-06 14:58:00,
2013-05-06 08:59:00,63.9,24.0,29.81,North,0,0.0,0.0,22,0.00,,,0.00,WUHU216HW,2013-05-06 14:59:00,
2013-05-06 09:00:00,63.9,24.0,29.81,North,0,0.0,0.0,22,0.00,,,0.00,WUHU216HW,2013-05-06 15:00:00,
2013-05-06 09:02:00,63.7,23.0,29.81,North,0,0.0,0.0,21,0.00,,,0.00,WUHU216HW,2013-05-06 15:02:00,
2013-05-06 09:04:00,63.7,23.9,29.80,North,0,0.0,0.0,22,0.00,,,0.00,WUHU216HW,2013-05-06 15:04:00,
2013-05-06 09:05:00,63.7,23.9,29.81,North,0,0.0,0.0,22,0.00,,,0.00,WUHU216HW,2013-05-06 15:05:00,
2013-05-06 09:07:00,63.7,23.9,29.81,North,0,0.0,0.0,22,0.00,,,0.00,WUHU216HW,2013-05-06 15:07:00,
2013-05-06 09:09:00,63.7,23.9,29.81,North,0,0.0,0.0,22,0.00,,,0.00,WUHU216HW,2013-05-06 15:09:00,
2013-05-06 09:10:00,63.7,23.9,29.80,North,0,0.0,0.0,22,0.00,,,0.00,WUHU216HW,2013-05-06 15:10:00,
2013-05-06 09:12:00,63.7,23.9,29.81,North,0,0.0,0.0,22,0.00,,,0.00,WUHU216HW,2013-05-06 15:12:00,
2013-05-06 09:14:00,63.5,23.8,29.81,North,0,0.0,0.0,22,0.00,,,0.00,WUHU216HW,2013-05-06 15:14:00,
2013-05-06 09:15:00,63.5,23.8,29.81,North,0,0.0,0.0,22,0.00,,,0.00,WUHU216HW,2013-05-06 15:15:00,
2013-05-06 09:16:00,63.5,23.8,29.81,North,0,0.0,0.0,22,0.00,,,0.00,WUHU216HW,2013-05-06 15:16:00,
2013-05-06 09:17:00,63.4,23.6,29.81,North,0,0.0,0.0,22,0.00,,,0.00,WUHU216HW,2013-05-06 15:17:00,
2013-05-06 09:19:00,63.2,23.5,29.81,North,0,0.0,0.0,22,0.00,,,0.00,WUHU216HW,2013-05-06 15:19:00,
2013-05-06 09:20:00,63.2,23.5,29.81,North,0,0.0,0.0,22,0.00,,,0.00,WUHU216HW,2013-05-06 15:20:00,
2013-05-06 09:21:00,63.0,24.3,29.81,North,0,0.0,0.0,23,0.00,,,0.00,WUHU216HW,2013-05-06 15:21:00,
2013-05-06 09:22:00,63.0,24.3,29.81,North,0,0.0,0.0,23,0.00,,,0.00,WUHU216HW,2013-05-06 15:22:00,
2013-05-06 09:24:00,63.0,24.3,29.80,North,0,0.0,0.0,23,0.00,,,0.00,WUHU216HW,2013-05-06 15:24:00,
2013-05-06 09:25:00,63.0,24.3,29.80,North,0,0.0,0.0,23,0.00,,,0.00,WUHU216HW,2013-05-06 15:25:00,
2013-05-06 09:26:00,63.0,24.3,29.80,North,0,0.0,0.0,23,0.00,,,0.00,WUHU216HW,2013-05-06 15:26:00,
2013-05-06 09:27:00,63.0,24.3,29.80,North,0,0.0,0.0,23,0.00,,,0.00,WUHU216HW,2013-05-06 15:27:00,
2013-05-06 09:29:00,63.0,24.3,29.80,North,0,0.0,0.0,23,0.00,,,0.00,WUHU216HW,2013-05-06 15:29:00,
2013-05-06 09:30:00,63.0,25.3,29.81,North,0,0.0,0.0,24,0.00,,,0.00,WUHU216HW,2013-05-06 15:30:00,
2013-05-06 09:31:00,63.0,25.3,29.81,North,0,0.0,0.0,24,0.00,,,0.00,WUHU216HW,2013-05-06 15:31:00,
2013-05-06 09:32:00,63.0,24.3,29.80,North,0,0.0,0.0,23,0.00,,,0.00,WUHU216HW,2013-05-06 15:32:00,
2013-05-06 09:35:00,63.2,24.4,29.81,North,0,0.0,0.0,23,0.00,,,0.00,WUHU216HW,2013-05-06 15:35:00,
2013-05-06 09:36:00,63.2,24.4,29.81,North,0,0.0,0.0,23,0.00,,,0.00,WUHU216HW,2013-05-06 15:36:00,
2013-05-06 09:37:00,63.4,24.6,29.81,North,0,0.0,0.0,23,0.00,,,0.00,WUHU216HW,2013-05-06 15:37:00,
2013-05-06 09:40:00,63.5,25.8,29.80,North,0,0.0,0.0,24,0.00,,,0.00,WUHU216HW,2013-05-06 15:40:00,
2013-05-06 09:41:00,63.7,24.8,29.81,North,0,0.0,0.0,23,0.00,,,0.00,WUHU216HW,2013-05-06 15:41:00,
2013-05-06 09:42:00,63.7,25.8,29.81,North,0,0.0,0.0,24,0.00,,,0.00,WUHU216HW,2013-05-06 15:42:00,
2013-05-06 09:45:00,63.9,25.0,29.81,North,0,0.0,0.0,23,0.00,,,0.00,WUHU216HW,2013-05-06 15:45:00,
2013-05-06 09:46:00,63.9,24.0,29.81,North,0,0.0,0.0,22,0.00,,,0.00,WUHU216HW,2013-05-06 15:46:00,
2013-05-06 09:48:00,64.1,24.2,29.81,North,0,0.0,0.0,22,0.00,,,0.00,WUHU216HW,2013-05-06 15:48:00,
2013-05-06 09:50:00,64.1,24.2,29.81,North,0,0.0,0.0,22,0.00,,,0.00,WUHU216HW,2013-05-06 15:50:00,
2013-05-06 09:51:00,63.9,24.0,29.80,North,0,0.0,0.0,22,0.00,,,0.00,WUHU216HW,2013-05-06 15:51:00,
2013-05-06 09:53:00,64.1,24.2,29.80,North,0,0.0,0.0,22,0.00,,,0.00,WUHU216HW,2013-05-06 15:53:00,
2013-05-06 09:55:00,64.1,25.2,29.81,North,0,0.0,0.0,23,0.00,,,0.00,WUHU216HW,2013-05-06 15:55:00,
2013-05-06 09:56:00,64.3,24.3,29.81,North,0,0.0,0.0,22,0.00,,,0.00,WUHU216HW,2013-05-06 15:56:00,
2013-05-06 09:58:00,64.3,24.3,29.81,North,0,0.0,0.0,22,0.00,,,0.00,WUHU216HW,2013-05-06 15:58:00,
2013-05-06 10:00:00,64.3,24.3,29.81,North,0,0.0,0.0,22,0.00,,,0.00,WUHU216HW,2013-05-06 16:00:00,
2013-05-06 10:01:00,64.3,24.3,29.81,North,0,0.0,0.0,22,0.00,,,0.00,WUHU216HW,2013-05-06 16:01:00,
2013-05-06 10:03:00,64.6,25.7,29.81,North,0,0.0,0.0,23,0.00,,,0.00,WUHU216HW,2013-05-06 16:03:00,
2013-05-06 10:06:00,65.2,32.0,29.81,North,0,0.0,0.0,29,0.00,,,0.00,WUHU216HW,2013-05-06 16:06:00,
2013-05-06 10:09:00,65.5,35.6,29.81,North,0,0.0,0.0,33,0.00,,,0.00,WUHU216HW,2013-05-06 16:09:00,
2013-05-06 10:11:00,65.5,35.6,29.81,North,0,0.0,0.0,33,0.00,,,0.00,WUHU216HW,2013-05-06 16:11:00,
2013-05-06 10:14:00,65.2,35.9,29.81,North,0,0.0,0.0,34,0.00,,,0.00,WUHU216HW,2013-05-06 16:14:00,
2013-05-06 10:16:00,65.0,37.2,29.81,North,0,0.0,0.0,36,0.00,,,0.00,WUHU216HW,2013-05-06 16:16:00,
2013-05-06 10:17:00,65.0,37.2,29.81,North,0,0.0,0.0,36,0.00,,,0.00,WUHU216HW,2013-05-06 16:17:00,
2013-05-06 10:19:00,64.3,37.3,29.82,North,0,0.0,0.0,37,0.00,,,0.00,WUHU216HW,2013-05-06 16:19:00,
2013-05-06 10:21:00,63.9,37.0,29.82,North,0,0.0,0.0,37,0.00,,,0.00,WUHU216HW,2013-05-06 16:21:00,
2013-05-06 10:22:00,63.9,37.7,29.82,North,0,0.0,0.0,38,0.00,,,0.00,WUHU216HW,2013-05-06 16:22:00,
2013-05-06 10:24:00,63.4,37.9,29.83,North,0,0.0,0.0,39,0.00,,,0.00,WUHU216HW,2013-05-06 16:24:00,
2013-05-06 10:26:00,63.0,38.4,29.83,North,0,0.0,0.0,40,0.00,,,0.00,WUHU216HW,2013-05-06 16:26:00,
2013-05-06 10:27:00,63.0,38.4,29.83,North,0,0.0,0.0,40,0.00,,,0.00,WUHU216HW,2013-05-06 16:27:00,
2013-05-06 10:29:00,62.5,38.4,29.83,North,0,0.0,0.0,41,0.00,,,0.00,WUHU216HW,2013-05-06 16:29:00,
2013-05-06 10:31:00,62.1,38.6,29.83,North,0,0.0,0.0,42,0.00,,,0.00,WUHU216HW,2013-05-06 16:31:00,
2013-05-06 10:32:00,62.1,38.6,29.83,North,0,0.0,0.0,42,0.00,,,0.00,WUHU216HW,2013-05-06 16:32:00,
2013-05-06 10:35:00,61.7,38.4,29.83,North,0,0.0,0.0,42,0.00,,,0.00,WUHU216HW,2013-05-06 16:35:00,
2013-05-06 10:37:00,61.6,38.7,29.83,North,0,0.0,0.0,43,0.00,,,0.00,WUHU216HW,2013-05-06 16:37:00,
2013-05-06 10:40:00,61.7,37.7,29.83,North,0,0.0,0.0,41,0.00,,,0.00,WUHU216HW,2013-05-06 16:40:00,
2013-05-06 10:42:00,61.9,37.9,29.83,North,0,0.0,0.0,41,0.00,,,0.00,WUHU216HW,2013-05-06 16:42:00,
2013-05-06 10:43:00,61.9,37.9,29.83,North,0,0.0,0.0,41,0.00,,,0.00,WUHU216HW,2013-05-06 16:43:00,
2013-05-06 10:45:00,62.1,38.1,29.83,North,0,0.0,0.0,41,0.00,,,0.00,WUHU216HW,2013-05-06 16:45:00,
2013-05-06 10:47:00,62.3,38.3,29.83,North,0,0.0,0.0,41,0.00,,,0.00,WUHU216HW,2013-05-06 16:47:00,
2013-05-06 10:48:00,62.1,37.5,29.83,North,0,0.0,0.0,40,0.00,,,0.00,WUHU216HW,2013-05-06 16:48:00,
2013-05-06 10:50:00,62.3,37.6,29.83,North,0,0.0,0.0,40,0.00,,,0.00,WUHU216HW,2013-05-06 16:50:00,
2013-05-06 10:52:00,62.3,37.6,29.83,North,0,0.0,0.0,40,0.00,,,0.00,WUHU216HW,2013-05-06 16:52:00,
2013-05-06 10:53:00,62.3,37.6,29.83,North,0,0.0,0.0,40,0.00,,,0.00,WUHU216HW,2013-05-06 16:53:00,
2013-05-06 10:55:00,62.5,38.4,29.83,North,0,0.0,0.0,41,0.00,,,0.00,WUHU216HW,2013-05-06 16:55:00,
2013-05-06 10:57:00,63.0,38.4,29.83,North,0,0.0,0.0,40,0.00,,,0.00,WUHU216HW,2013-05-06 16:57:00,
2013-05-06 10:58:00,63.0,38.4,29.83,North,0,0.0,0.0,40,0.00,,,0.00,WUHU216HW,2013-05-06 16:58:00,
2013-05-06 11:01:00,63.7,38.3,29.83,North,0,0.0,0.0,39,0.00,,,0.00,WUHU216HW,2013-05-06 17:01:00,
2013-05-06 11:03:00,64.1,37.8,29.83,North,0,0.0,0.0,38,0.00,,,0.00,WUHU216HW,2013-05-06 17:03:00,
2013-05-06 11:06:00,64.6,37.6,29.83,North,0,0.0,0.0,37,0.00,,,0.00,WUHU216HW,2013-05-06 17:06:00,
2013-05-06 11:08:00,65.3,37.5,29.83,North,0,0.0,0.0,36,0.00,,,0.00,WUHU216HW,2013-05-06 17:08:00,
2013-05-06 11:09:00,65.5,37.7,29.83,North,0,0.0,0.0,36,0.00,,,0.00,WUHU216HW,2013-05-06 17:09:00,
2013-05-06 11:11:00,65.5,37.7,29.83,North,0,0.0,0.0,36,0.00,,,0.00,WUHU216HW,2013-05-06 17:11:00,
2013-05-06 11:13:00,66.2,37.6,29.83,North,0,0.0,0.0,35,0.00,,,0.00,WUHU216HW,2013-05-06 17:13:00,
2013-05-06 11:14:00,66.2,37.6,29.83,North,0,0.0,0.0,35,0.00,,,0.00,WUHU216HW,2013-05-06 17:14:00,
2013-05-06 11:16:00,66.2,37.6,29.83,North,0,0.0,0.0,35,0.00,,,0.00,WUHU216HW,2013-05-06 17:16:00,
2013-05-06 11:18:00,66.2,37.6,29.83,North,0,0.0,0.0,35,0.00,,,0.00,WUHU216HW,2013-05-06 17:18:00,
2013-05-06 11:19:00,66.2,37.6,29.83,North,0,0.0,0.0,35,0.00,,,0.00,WUHU216HW,2013-05-06 17:19:00,
2013-05-06 11:21:00,66.1,36.7,29.83,North,0,0.0,0.0,34,0.00,,,0.00,WUHU216HW,2013-05-06 17:21:00,
2013-05-06 11:23:00,65.9,38.0,29.83,North,0,0.0,0.0,36,0.00,,,0.00,WUHU216HW,2013-05-06 17:23:00,
2013-05-06 11:24:00,65.9,38.0,29.83,North,0,0.0,0.0,36,0.00,,,0.00,WUHU216HW,2013-05-06 17:24:00,
2013-05-06 11:25:00,65.9,36.5,29.83,North,0,0.0,0.0,34,0.00,,,0.00,WUHU216HW,2013-05-06 17:25:00,
2013-05-06 11:26:00,65.3,37.5,29.83,North,0,0.0,0.0,36,0.00,,,0.00,WUHU216HW,2013-05-06 17:26:00,
2013-05-06 11:28:00,65.0,37.2,29.83,North,0,0.0,0.0,36,0.00,,,0.00,WUHU216HW,2013-05-06 17:28:00,
2013-05-06 11:29:00,65.0,37.2,29.83,North,0,0.0,0.0,36,0.00,,,0.00,WUHU216HW,2013-05-06 17:29:00,
2013-05-06 11:30:00,64.8,37.8,29.83,North,0,0.0,0.0,37,0.00,,,0.00,WUHU216HW,2013-05-06 17:30:00,
2013-05-06 11:31:00,64.8,37.8,29.83,North,0,0.0,0.0,37,0.00,,,0.00,WUHU216HW,2013-05-06 17:31:00,
2013-05-06 11:33:00,64.8,38.5,29.83,North,0,0.0,0.0,38,0.00,,,0.00,WUHU216HW,2013-05-06 17:33:00,
2013-05-06 11:34:00,64.8,38.5,29.82,North,0,0.0,0.0,38,0.00,,,0.00,WUHU216HW,2013-05-06 17:34:00,
2013-05-06 11:35:00,64.6,38.4,29.82,North,0,0.0,0.0,38,0.00,,,0.00,WUHU216HW,2013-05-06 17:35:00,
2013-05-06 11:36:00,64.6,38.4,29.83,North,0,0.0,0.0,38,0.00,,,0.00,WUHU216HW,2013-05-06 17:36:00,
2013-05-06 11:39:00,64.4,38.2,29.83,North,0,0.0,0.0,38,0.00,,,0.00,WUHU216HW,2013-05-06 17:39:00,
2013-05-06 11:40:00,64.6,39.1,29.83,North,0,0.0,0.0,39,0.00,,,0.00,WUHU216HW,2013-05-06 17:40:00,
2013-05-06 11:41:00,64.4,38.2,29.82,North,0,0.0,0.0,38,0.00,,,0.00,WUHU216HW,2013-05-06 17:41:00,
2013-05-06 11:44:00,64.3,38.7,29.82,North,0,0.0,0.0,39,0.00,,,0.00,WUHU216HW,2013-05-06 17:44:00,
2013-05-06 11:45:00,64.3,38.7,29.83,North,0,0.0,0.0,39,0.00,,,0.00,WUHU216HW,2013-05-06 17:45:00,
2013-05-06 11:46:00,64.1,39.2,29.82,North,0,0.0,0.0,40,0.00,,,0.00,WUHU216HW,2013-05-06 17:46:00,
2013-05-06 11:49:00,63.7,39.0,29.82,North,0,0.0,0.0,40,0.00,,,0.00,WUHU216HW,2013-05-06 17:49:00,
2013-05-06 11:50:00,63.7,39.0,29.82,North,0,0.0,0.0,40,0.00,,,0.00,WUHU216HW,2013-05-06 17:50:00,
2013-05-06 11:51:00,63.7,39.0,29.82,North,0,0.0,0.0,40,0.00,,,0.00,WUHU216HW,2013-05-06 17:51:00,
2013-05-06 11:52:00,63.7,39.0,29.82,North,0,0.0,0.0,40,0.00,,,0.00,WUHU216HW,2013-05-06 17:52:00,
2013-05-06 11:54:00,63.9,38.4,29.82,North,0,0.0,0.0,39,0.00,,,0.00,WUHU216HW,2013-05-06 17:54:00,
2013-05-06 11:55:00,63.9,38.4,29.82,North,0,0.0,0.0,39,0.00,,,0.00,WUHU216HW,2013-05-06 17:55:00,
2013-05-06 11:57:00,64.1,37.8,29.82,North,0,0.0,0.0,38,0.00,,,0.00,WUHU216HW,2013-05-06 17:57:00,
2013-05-06 11:58:00,63.9,37.7,29.82,North,0,0.0,0.0,38,0.00,,,0.00,WUHU216HW,2013-05-06 17:58:00,
2013-05-06 12:00:00,64.1,37.8,29.82,North,0,0.0,0.0,38,0.00,,,0.00,WUHU216HW,2013-05-06 18:00:00,
2013-05-06 12:01:00,64.1,37.8,29.82,North,0,0.0,0.0,38,0.00,,,0.00,WUHU216HW,2013-05-06 18:01:00,
2013-05-06 12:02:00,64.1,37.8,29.82,North,0,0.0,0.0,38,0.00,,,0.00,WUHU216HW,2013-05-06 18:02:00,
2013-05-06 12:03:00,64.3,38.0,29.82,North,0,0.0,0.0,38,0.00,,,0.00,WUHU216HW,2013-05-06 18:03:00,
2013-05-06 12:05:00,64.8,39.3,29.82,North,0,0.0,0.0,39,0.00,,,0.00,WUHU216HW,2013-05-06 18:05:00,
2013-05-06 12:06:00,65.0,38.6,29.82,North,0,0.0,0.0,38,0.00,,,0.00,WUHU216HW,2013-05-06 18:06:00,
2013-05-06 12:07:00,65.2,38.1,29.82,North,0,0.0,0.0,37,0.00,,,0.00,WUHU216HW,2013-05-06 18:07:00,
2013-05-06 12:08:00,65.0,38.6,29.82,North,0,0.0,0.0,38,0.00,,,0.00,WUHU216HW,2013-05-06 18:08:00,
2013-05-06 12:10:00,64.8,38.5,29.82,North,0,0.0,0.0,38,0.00,,,0.00,WUHU216HW,2013-05-06 18:10:00,
2013-05-06 12:11:00,64.8,39.3,29.82,North,0,0.0,0.0,39,0.00,,,0.00,WUHU216HW,2013-05-06 18:11:00,
2013-05-06 12:12:00,64.8,39.3,29.82,North,0,0.0,0.0,39,0.00,,,0.00,WUHU216HW,2013-05-06 18:12:00,
2013-05-06 12:13:00,65.0,38.6,29.82,North,0,0.0,0.0,38,0.00,,,0.00,WUHU216HW,2013-05-06 18:13:00,
2013-05-06 12:16:00,65.2,38.8,29.82,North,0,0.0,0.0,38,0.00,,,0.00,WUHU216HW,2013-05-06 18:16:00,
2013-05-06 12:17:00,65.2,38.8,29.82,North,0,0.0,0.0,38,0.00,,,0.00,WUHU216HW,2013-05-06 18:17:00,
2013-05-06 12:18:00,65.3,39.0,29.82,North,0,0.0,0.0,38,0.00,,,0.00,WUHU216HW,2013-05-06 18:18:00,
2013-05-06 12:19:00,65.3,39.0,29.82,North,0,0.0,0.0,38,0.00,,,0.00,WUHU216HW,2013-05-06 18:19:00,
2013-05-06 12:21:00,65.9,39.4,29.82,North,0,0.0,0.0,38,0.00,,,0.00,WUHU216HW,2013-05-06 18:21:00,
2013-05-06 12:22:00,65.9,39.4,29.82,North,0,0.0,0.0,38,0.00,,,0.00,WUHU216HW,2013-05-06 18:22:00,
2013-05-06 12:23:00,66.4,40.0,29.82,North,0,0.0,0.0,38,0.00,,,0.00,WUHU216HW,2013-05-06 18:23:00,
2013-05-06 12:24:00,66.4,40.0,29.82,North,0,0.0,0.0,38,0.00,,,0.00,WUHU216HW,2013-05-06 18:24:00,
2013-05-06 12:27:00,67.1,40.6,29.82,North,0,0.0,0.0,38,0.00,,,0.00,WUHU216HW,2013-05-06 18:27:00,
2013-05-06 12:28:00,67.3,40.8,29.82,North,0,0.0,0.0,38,0.00,,,0.00,WUHU216HW,2013-05-06 18:28:00,
2013-05-06 12:29:00,67.3,40.8,29.82,North,0,0.0,0.0,38,0.00,,,0.00,WUHU216HW,2013-05-06 18:29:00,
2013-05-06 12:32:00,67.5,40.1,29.82,North,0,0.0,0.0,37,0.00,,,0.00,WUHU216HW,2013-05-06 18:32:00,
2013-05-06 12:33:00,67.7,40.3,29.82,North,0,0.0,0.0,37,0.00,,,0.00,WUHU216HW,2013-05-06 18:33:00,
2013-05-06 12:34:00,67.7,40.3,29.82,North,0,0.0,0.0,37,0.00,,,0.00,WUHU216HW,2013-05-06 18:34:00,
2013-05-06 12:37:00,68.4,41.0,29.82,North,0,0.0,0.0,37,0.00,,,0.00,WUHU216HW,2013-05-06 18:37:00,
2013-05-06 12:38:00,68.4,41.0,29.82,North,0,0.0,0.0,37,0.00,,,0.00,WUHU216HW,2013-05-06 18:38:00,
2013-05-06 12:39:00,68.6,40.4,29.82,North,0,0.0,0.0,36,0.00,,,0.00,WUHU216HW,2013-05-06 18:39:00,
2013-05-06 12:42:00,68.9,40.0,29.82,North,0,0.0,0.0,35,0.00,,,0.00,WUHU216HW,2013-05-06 18:42:00,
2013-05-06 12:43:00,68.9,40.0,29.82,North,0,0.0,0.0,35,0.00,,,0.00,WUHU216HW,2013-05-06 18:43:00,
2013-05-06 12:44:00,68.9,40.0,29.82,North,0,0.0,0.0,35,0.00,,,0.00,WUHU216HW,2013-05-06 18:44:00,
2013-05-06 12:45:00,69.1,40.2,29.82,North,0,0.0,0.0,35,0.00,,,0.00,WUHU216HW,2013-05-06 18:45:00,
2013-05-06 12:47:00,68.9,39.3,29.82,North,0,0.0,0.0,34,0.00,,,0.00,WUHU216HW,2013-05-06 18:47:00,
2013-05-06 12:48:00,68.9,39.3,29.82,North,0,0.0,0.0,34,0.00,,,0.00,WUHU216HW,2013-05-06 18:48:00,
2013-05-06 12:49:00,68.8,39.1,29.82,North,0,0.0,0.0,34,0.00,,,0.00,WUHU216HW,2013-05-06 18:49:00,
2013-05-06 12:50:00,68.8,39.1,29.82,North,0,0.0,0.0,34,0.00,,,0.00,WUHU216HW,2013-05-06 18:50:00,
2013-05-06 12:52:00,68.8,39.1,29.82,North,0,0.0,0.0,34,0.00,,,0.00,WUHU216HW,2013-05-06 18:52:00,
2013-05-06 12:53:00,68.8,39.1,29.82,North,0,0.0,0.0,34,0.00,,,0.00,WUHU216HW,2013-05-06 18:53:00,
2013-05-06 12:54:00,68.6,38.9,29.82,North,0,0.0,0.0,34,0.00,,,0.00,WUHU216HW,2013-05-06 18:54:00,
2013-05-06 12:55:00,68.6,38.9,29.82,North,0,0.0,0.0,34,0.00,,,0.00,WUHU216HW,2013-05-06 18:55:00,
2013-05-06 12:58:00,68.8,39.1,29.82,North,0,0.0,0.0,34,0.00,,,0.00,WUHU216HW,2013-05-06 18:58:00,
2013-05-06 12:59:00,68.9,39.3,29.82,North,0,0.0,0.0,34,0.00,,,0.00,WUHU216HW,2013-05-06 18:59:00,
2013-05-06 13:00:00,68.9,38.5,29.82,North,0,0.0,0.0,33,0.00,,,0.00,WUHU216HW,2013-05-06 19:00:00,
2013-05-06 13:03:00,68.9,38.5,29.82,North,0,0.0,0.0,33,0.00,,,0.00,WUHU216HW,2013-05-06 19:03:00,
2013-05-06 13:04:00,68.8,38.4,29.82,North,0,0.0,0.0,33,0.00,,,0.00,WUHU216HW,2013-05-06 19:04:00,
2013-05-06 13:05:00,68.6,38.2,29.82,North,0,0.0,0.0,33,0.00,,,0.00,WUHU216HW,2013-05-06 19:05:00,
2013-05-06 13:08:00,68.4,38.0,29.82,North,0,0.0,0.0,33,0.00,,,0.00,WUHU216HW,2013-05-06 19:08:00,
2013-05-06 13:09:00,68.6,38.9,29.82,North,0,0.0,0.0,34,0.00,,,0.00,WUHU216HW,2013-05-06 19:09:00,
2013-05-06 13:10:00,68.8,39.1,29.82,North,0,0.0,0.0,34,0.00,,,0.00,WUHU216HW,2013-05-06 19:10:00,
2013-05-06 13:13:00,69.1,38.6,29.82,North,0,0.0,0.0,33,0.00,,,0.00,WUHU216HW,2013-05-06 19:13:00,
2013-05-06 13:14:00,69.1,38.6,29.82,North,0,0.0,0.0,33,0.00,,,0.00,WUHU216HW,2013-05-06 19:14:00,
2013-05-06 13:15:00,69.1,38.6,29.82,North,0,0.0,0.0,33,0.00,,,0.00,WUHU216HW,2013-05-06 19:15:00,
2013-05-06 13:19:00,69.5,39.0,29.81,North,0,0.0,0.0,33,0.00,,,0.00,WUHU216HW,2013-05-06 19:19:00,
2013-05-06 13:20:00,69.5,39.0,29.81,North,0,0.0,0.0,33,0.00,,,0.00,WUHU216HW,2013-05-06 19:20:00,
2013-05-06 13:21:00,69.5,38.3,29.81,North,0,0.0,0.0,32,0.00,,,0.00,WUHU216HW,2013-05-06 19:21:00,
2013-05-06 13:24:00,69.5,38.3,29.81,North,0,0.0,0.0,32,0.00,,,0.00,WUHU216HW,2013-05-06 19:24:00,
2013-05-06 13:25:00,69.5,38.3,29.81,North,0,0.0,0.0,32,0.00,,,0.00,WUHU216HW,2013-05-06 19:25:00,
2013-05-06 13:26:00,69.7,38.4,29.81,North,0,0.0,0.0,32,0.00,,,0.00,WUHU216HW,2013-05-06 19:26:00,
2013-05-06 13:29:00,69.8,37.8,29.81,North,0,0.0,0.0,31,0.00,,,0.00,WUHU216HW,2013-05-06 19:29:00,
2013-05-06 13:30:00,70.2,38.2,29.81,North,0,0.0,0.0,31,0.00,,,0.00,WUHU216HW,2013-05-06 19:30:00,
2013-05-06 13:31:00,70.2,37.5,29.81,North,0,0.0,0.0,30,0.00,,,0.00,WUHU216HW,2013-05-06 19:31:00,
2013-05-06 13:34:00,70.4,38.4,29.81,North,0,0.0,0.0,31,0.00,,,0.00,WUHU216HW,2013-05-06 19:34:00,
2013-05-06 13:35:00,70.4,38.4,29.81,North,0,0.0,0.0,31,0.00,,,0.00,WUHU216HW,2013-05-06 19:35:00,
2013-05-06 13:36:00,70.6,38.4,29.81,North,0,0.0,0.0,31,0.00,,,0.00,WUHU216HW,2013-05-06 19:36:00,
2013-05-06 13:40:00,70.7,38.6,29.81,North,0,0.0,0.0,31,0.00,,,0.00,WUHU216HW,2013-05-06 19:40:00,
2013-05-06 13:41:00,71.1,38.3,29.81,North,0,0.0,0.0,30,0.00,,,0.00,WUHU216HW,2013-05-06 19:41:00,
2013-05-06 13:42:00,71.3,38.3,29.81,North,0,0.0,0.0,30,0.00,,,0.00,WUHU216HW,2013-05-06 19:42:00,
2013-05-06 13:45:00,71.3,38.3,29.81,North,0,0.0,0.0,30,0.00,,,0.00,WUHU216HW,2013-05-06 19:45:00,
2013-05-06 13:46:00,71.1,38.3,29.81,North,0,0.0,0.0,30,0.00,,,0.00,WUHU216HW,2013-05-06 19:46:00,
2013-05-06 13:47:00,71.1,38.3,29.81,North,0,0.0,0.0,30,0.00,,,0.00,WUHU216HW,2013-05-06 19:47:00,
2013-05-06 13:50:00,71.3,37.4,29.81,North,0,0.0,0.0,29,0.00,,,0.00,WUHU216HW,2013-05-06 19:50:00,
2013-05-06 13:51:00,71.3,37.4,29.81,North,0,0.0,0.0,29,0.00,,,0.00,WUHU216HW,2013-05-06 19:51:00,
2013-05-06 13:52:00,71.5,38.5,29.81,North,0,0.0,0.0,30,0.00,,,0.00,WUHU216HW,2013-05-06 19:52:00,
2013-05-06 13:55:00,71.6,37.7,29.81,North,0,0.0,0.0,29,0.00,,,0.00,WUHU216HW,2013-05-06 19:55:00,
2013-05-06 13:56:00,71.6,37.7,29.81,North,0,0.0,0.0,29,0.00,,,0.00,WUHU216HW,2013-05-06 19:56:00,
2013-05-06 13:57:00,71.8,37.8,29.81,North,0,0.0,0.0,29,0.00,,,0.00,WUHU216HW,2013-05-06 19:57:00,
2013-05-06 14:00:00,71.6,37.7,29.81,North,0,0.0,0.0,29,0.00,,,0.00,WUHU216HW,2013-05-06 20:00:00,
2013-05-06 14:01:00,71.6,37.7,29.81,North,0,0.0,0.0,29,0.00,,,0.00,WUHU216HW,2013-05-06 20:01:00,
2013-05-06 14:02:00,71.6,37.7,29.81,North,0,0.0,0.0,29,0.00,,,0.00,WUHU216HW,2013-05-06 20:02:00,
2013-05-06 14:05:00,71.6,37.7,29.81,North,0,0.0,0.0,29,0.00,,,0.00,WUHU216HW,2013-05-06 20:05:00,
2013-05-06 14:06:00,71.6,37.7,29.81,North,0,0.0,0.0,29,0.00,,,0.00,WUHU216HW,2013-05-06 20:06:00,
2013-05-06 14:07:00,71.6,37.7,29.81,North,0,0.0,0.0,29,0.00,,,0.00,WUHU216HW,2013-05-06 20:07:00,
2013-05-06 14:08:00,71.6,37.7,29.81,North,0,0.0,0.0,29,0.00,,,0.00,WUHU216HW,2013-05-06 20:08:00,
2013-05-06 14:10:00,71.8,37.8,29.81,North,0,0.0,0.0,29,0.00,,,0.00,WUHU216HW,2013-05-06 20:10:00,
2013-05-06 14:11:00,72.0,38.0,29.81,North,0,0.0,0.0,29,0.00,,,0.00,WUHU216HW,2013-05-06 20:11:00,
2013-05-06 14:12:00,72.0,38.0,29.81,North,0,0.0,0.0,29,0.00,,,0.00,WUHU216HW,2013-05-06 20:12:00,
2013-05-06 14:13:00,72.2,38.1,29.81,North,0,0.0,0.0,29,0.00,,,0.00,WUHU216HW,2013-05-06 20:13:00,
2013-05-06 14:15:00,72.2,38.1,29.81,North,0,0.0,0.0,29,0.00,,,0.00,WUHU216HW,2013-05-06 20:15:00,
2013-05-06 14:17:00,72.4,38.3,29.81,North,0,0.0,0.0,29,0.00,,,0.00,WUHU216HW,2013-05-06 20:17:00,
2013-05-06 14:18:00,72.4,38.3,29.81,North,0,0.0,0.0,29,0.00,,,0.00,WUHU216HW,2013-05-06 20:18:00,
2013-05-06 14:20:00,72.2,38.1,29.81,North,0,0.0,0.0,29,0.00,,,0.00,WUHU216HW,2013-05-06 20:20:00,
2013-05-06 14:22:00,72.2,38.1,29.81,North,0,0.0,0.0,29,0.00,,,0.00,WUHU216HW,2013-05-06 20:22:00,
2013-05-06 14:23:00,72.2,38.1,29.80,North,0,0.0,0.0,29,0.00,,,0.00,WUHU216HW,2013-05-06 20:23:00,
2013-05-06 14:24:00,72.2,38.1,29.80,North,0,0.0,0.0,29,0.00,,,0.00,WUHU216HW,2013-05-06 20:24:00,
2013-05-06 14:25:00,72.2,38.1,29.80,North,0,0.0,0.0,29,0.00,,,0.00,WUHU216HW,2013-05-06 20:25:00,
2013-05-06 14:27:00,72.0,38.0,29.81,North,0,0.0,0.0,29,0.00,,,0.00,WUHU216HW,2013-05-06 20:27:00,
2013-05-06 14:28:00,71.8,37.8,29.80,North,0,0.0,0.0,29,0.00,,,0.00,WUHU216HW,2013-05-06 20:28:00,
2013-05-06 14:29:00,71.8,37.8,29.80,North,0,0.0,0.0,29,0.00,,,0.00,WUHU216HW,2013-05-06 20:29:00,
2013-05-06 14:30:00,71.8,37.8,29.80,North,0,0.0,0.0,29,0.00,,,0.00,WUHU216HW,2013-05-06 20:30:00,
2013-05-06 14:32:00,71.8,37.8,29.80,North,0,0.0,0.0,29,0.00,,,0.00,WUHU216HW,2013-05-06 20:32:00,
2013-05-06 14:33:00,71.8,37.8,29.80,North,0,0.0,0.0,29,0.00,,,0.00,WUHU216HW,2013-05-06 20:33:00,
2013-05-06 14:34:00,72.0,38.0,29.80,North,0,0.0,0.0,29,0.00,,,0.00,WUHU216HW,2013-05-06 20:34:00,
2013-05-06 14:36:00,71.8,37.8,29.80,North,0,0.0,0.0,29,0.00,,,0.00,WUHU216HW,2013-05-06 20:36:00,
2013-05-06 14:37:00,72.0,36.9,29.80,North,0,0.0,0.0,28,0.00,,,0.00,WUHU216HW,2013-05-06 20:37:00,
2013-05-06 14:39:00,72.0,36.9,29.80,North,0,0.0,0.0,28,0.00,,,0.00,WUHU216HW,2013-05-06 20:39:00,
2013-05-06 14:41:00,71.8,36.8,29.80,North,0,0.0,0.0,28,0.00,,,0.00,WUHU216HW,2013-05-06 20:41:00,
2013-05-06 14:42:00,72.0,36.9,29.80,North,0,0.0,0.0,28,0.00,,,0.00,WUHU216HW,2013-05-06 20:42:00,
2013-05-06 14:44:00,72.0,35.9,29.80,North,0,0.0,0.0,27,0.00,,,0.00,WUHU216HW,2013-05-06 20:44:00,
2013-05-06 14:45:00,72.2,37.1,29.79,North,0,0.0,0.0,28,0.00,,,0.00,WUHU216HW,2013-05-06 20:45:00,
2013-05-06 14:46:00,72.5,35.4,29.80,North,0,0.0,0.0,26,0.00,,,0.00,WUHU216HW,2013-05-06 20:46:00,
2013-05-06 14:48:00,72.7,35.5,29.80,North,0,0.0,0.0,26,0.00,,,0.00,WUHU216HW,2013-05-06 20:48:00,
2013-05-06 14:49:00,72.7,35.5,29.80,North,0,0.0,0.0,26,0.00,,,0.00,WUHU216HW,2013-05-06 20:49:00,
2013-05-06 14:50:00,72.7,35.5,29.80,North,0,0.0,0.0,26,0.00,,,0.00,WUHU216HW,2013-05-06 20:50:00,
2013-05-06 14:51:00,72.9,36.6,29.80,North,0,0.0,0.0,27,0.00,,,0.00,WUHU216HW,2013-05-06 20:51:00,
2013-05-06 14:53:00,73.1,35.8,29.79,North,0,0.0,0.0,26,0.00,,,0.00,WUHU216HW,2013-05-06 20:53:00,
2013-05-06 14:54:00,73.1,35.8,29.79,North,0,0.0,0.0,26,0.00,,,0.00,WUHU216HW,2013-05-06 20:54:00,
2013-05-06 14:55:00,73.1,35.8,29.79,North,0,0.0,0.0,26,0.00,,,0.00,WUHU216HW,2013-05-06 20:55:00,
2013-05-06 14:56:00,73.3,34.9,29.79,North,0,0.0,0.0,25,0.00,,,0.00,WUHU216HW,2013-05-06 20:56:00,
2013-05-06 14:58:00,73.1,35.8,29.79,North,0,0.0,0.0,26,0.00,,,0.00,WUHU216HW,2013-05-06 20:58:00,
2013-05-06 14:59:00,73.1,35.8,29.79,North,0,0.0,0.0,26,0.00,,,0.00,WUHU216HW,2013-05-06 20:59:00,
2013-05-06 15:00:00,73.1,35.8,29.79,North,0,0.0,0.0,26,0.00,,,0.00,WUHU216HW,2013-05-06 21:00:00,
2013-05-06 15:01:00,73.1,35.8,29.79,North,0,0.0,0.0,26,0.00,,,0.00,WUHU216HW,2013-05-06 21:01:00,
2013-05-06 15:03:00,73.4,36.1,29.79,North,0,0.0,0.0,26,0.00,,,0.00,WUHU216HW,2013-05-06 21:03:00,
2013-05-06 15:04:00,73.8,36.5,29.79,North,0,0.0,0.0,26,0.00,,,0.00,WUHU216HW,2013-05-06 21:04:00,
2013-05-06 15:05:00,73.8,36.5,29.79,North,0,0.0,0.0,26,0.00,,,0.00,WUHU216HW,2013-05-06 21:05:00,
2013-05-06 15:06:00,74.0,35.6,29.79,North,0,0.0,0.0,25,0.00,,,0.00,WUHU216HW,2013-05-06 21:06:00,
2013-05-06 15:08:00,74.2,35.7,29.79,North,0,0.0,0.0,25,0.00,,,0.00,WUHU216HW,2013-05-06 21:08:00,
2013-05-06 15:09:00,74.3,35.8,29.79,North,0,0.0,0.0,25,0.00,,,0.00,WUHU216HW,2013-05-06 21:09:00,
2013-05-06 15:10:00,74.3,35.8,29.79,North,0,0.0,0.0,25,0.00,,,0.00,WUHU216HW,2013-05-06 21:10:00,
2013-05-06 15:11:00,74.3,35.8,29.79,North,0,0.0,0.0,25,0.00,,,0.00,WUHU216HW,2013-05-06 21:11:00,
2013-05-06 15:13:00,74.2,34.8,29.79,North,0,0.0,0.0,24,0.00,,,0.00,WUHU216HW,2013-05-06 21:13:00,
2013-05-06 15:14:00,74.0,34.6,29.79,North,0,0.0,0.0,24,0.00,,,0.00,WUHU216HW,2013-05-06 21:14:00,
2013-05-06 15:16:00,74.0,34.6,29.79,North,0,0.0,0.0,24,0.00,,,0.00,WUHU216HW,2013-05-06 21:16:00,
2013-05-06 15:19:00,73.8,34.4,29.78,North,0,0.0,0.0,24,0.00,,,0.00,WUHU216HW,2013-05-06 21:19:00,
2013-05-06 15:21:00,73.6,34.2,29.78,North,0,0.0,0.0,24,0.00,,,0.00,WUHU216HW,2013-05-06 21:21:00,
2013-05-06 15:24:00,73.8,34.4,29.78,North,0,0.0,0.0,24,0.00,,,0.00,WUHU216HW,2013-05-06 21:24:00,
2013-05-06 15:26:00,74.0,33.6,29.78,North,0,0.0,0.0,23,0.00,,,0.00,WUHU216HW,2013-05-06 21:26:00,
2013-05-06 15:29:00,74.3,32.9,29.78,North,0,0.0,0.0,22,0.00,,,0.00,WUHU216HW,2013-05-06 21:29:00,
2013-05-06 15:31:00,74.5,32.9,29.78,North,0,0.0,0.0,22,0.00,,,0.00,WUHU216HW,2013-05-06 21:31:00,
2013-05-06 15:32:00,74.5,32.9,29.78,North,0,0.0,0.0,22,0.00,,,0.00,WUHU216HW,2013-05-06 21:32:00,
2013-05-06 15:34:00,74.5,32.9,29.78,North,0,0.0,0.0,22,0.00,,,0.00,WUHU216HW,2013-05-06 21:34:00,
2013-05-06 15:36:00,74.5,32.0,29.78,North,0,0.0,0.0,21,0.00,,,0.00,WUHU216HW,2013-05-06 21:36:00,
2013-05-06 15:37:00,74.5,32.9,29.78,North,0,0.0,0.0,22,0.00,,,0.00,WUHU216HW,2013-05-06 21:37:00,
2013-05-06 15:39:00,74.5,32.0,29.78,North,0,0.0,0.0,21,0.00,,,0.00,WUHU216HW,2013-05-06 21:39:00,
2013-05-06 15:40:00,74.5,32.0,29.78,North,0,0.0,0.0,21,0.00,,,0.00,WUHU216HW,2013-05-06 21:40:00,
2013-05-06 15:41:00,74.5,32.9,29.78,North,0,0.0,0.0,22,0.00,,,0.00,WUHU216HW,2013-05-06 21:41:00,
2013-05-06 15:42:00,74.5,32.9,29.78,North,0,0.0,0.0,22,0.00,,,0.00,WUHU216HW,2013-05-06 21:42:00,
2013-05-06 15:43:00,74.5,32.0,29.78,North,0,0.0,0.0,21,0.00,,,0.00,WUHU216HW,2013-05-06 21:43:00,
2013-05-06 15:44:00,74.5,32.0,29.78,North,0,0.0,0.0,21,0.00,,,0.00,WUHU216HW,2013-05-06 21:44:00,
2013-05-06 15:45:00,74.5,32.0,29.78,North,0,0.0,0.0,21,0.00,,,0.00,WUHU216HW,2013-05-06 21:45:00,
2013-05-06 15:47:00,74.5,32.0,29.78,North,0,0.0,0.0,21,0.00,,,0.00,WUHU216HW,2013-05-06 21:47:00,
2013-05-06 15:48:00,74.5,32.0,29.78,North,0,0.0,0.0,21,0.00,,,0.00,WUHU216HW,2013-05-06 21:48:00,
2013-05-06 15:49:00,74.5,32.0,29.78,North,0,0.0,0.0,21,0.00,,,0.00,WUHU216HW,2013-05-06 21:49:00,
2013-05-06 15:50:00,74.5,32.0,29.78,North,0,0.0,0.0,21,0.00,,,0.00,WUHU216HW,2013-05-06 21:50:00,
2013-05-06 15:52:00,74.5,32.0,29.78,North,0,0.0,0.0,21,0.00,,,0.00,WUHU216HW,2013-05-06 21:52:00,
2013-05-06 15:53:00,74.7,32.1,29.78,North,0,0.0,0.0,21,0.00,,,0.00,WUHU216HW,2013-05-06 21:53:00,
2013-05-06 15:54:00,74.5,32.0,29.78,North,0,0.0,0.0,21,0.00,,,0.00,WUHU216HW,2013-05-06 21:54:00,
2013-05-06 15:55:00,74.5,32.0,29.78,North,0,0.0,0.0,21,0.00,,,0.00,WUHU216HW,2013-05-06 21:55:00,
2013-05-06 15:57:00,74.3,31.8,29.78,North,0,0.0,0.0,21,0.00,,,0.00,WUHU216HW,2013-05-06 21:57:00,
2013-05-06 15:59:00,74.2,31.7,29.78,North,0,0.0,0.0,21,0.00,,,0.00,WUHU216HW,2013-05-06 21:59:00,
2013-05-06 16:00:00,74.2,31.7,29.78,North,0,0.0,0.0,21,0.00,,,0.00,WUHU216HW,2013-05-06 22:00:00,
2013-05-06 16:02:00,74.2,31.7,29.77,North,0,0.0,0.0,21,0.00,,,0.00,WUHU216HW,2013-05-06 22:02:00,
2013-05-06 16:03:00,74.3,31.8,29.78,North,0,0.0,0.0,21,0.00,,,0.00,WUHU216HW,2013-05-06 22:03:00,
2013-05-06 16:04:00,74.5,32.0,29.78,North,0,0.0,0.0,21,0.00,,,0.00,WUHU216HW,2013-05-06 22:04:00,
2013-05-06 16:05:00,74.5,32.0,29.78,North,0,0.0,0.0,21,0.00,,,0.00,WUHU216HW,2013-05-06 22:05:00,
2013-05-06 16:07:00,75.1,32.4,29.77,North,0,0.0,0.0,21,0.00,,,0.00,WUHU216HW,2013-05-06 22:07:00,
2013-05-06 16:08:00,75.1,32.4,29.77,North,0,0.0,0.0,21,0.00,,,0.00,WUHU216HW,2013-05-06 22:08:00,
2013-05-06 16:09:00,75.2,32.5,29.77,North,0,0.0,0.0,21,0.00,,,0.00,WUHU216HW,2013-05-06 22:09:00,
2013-05-06 16:10:00,75.4,32.7,29.77,North,0,0.0,0.0,21,0.00,,,0.00,WUHU216HW,2013-05-06 22:10:00,
2013-05-06 16:12:00,75.4,32.7,29.77,North,0,0.0,0.0,21,0.00,,,0.00,WUHU216HW,2013-05-06 22:12:00,
2013-05-06 16:13:00,75.2,32.5,29.77,North,0,0.0,0.0,21,0.00,,,0.00,WUHU216HW,2013-05-06 22:13:00,
2013-05-06 16:14:00,75.2,32.5,29.77,North,0,0.0,0.0,21,0.00,,,0.00,WUHU216HW,2013-05-06 22:14:00,
2013-05-06 16:15:00,75.2,32.5,29.77,North,0,0.0,0.0,21,0.00,,,0.00,WUHU216HW,2013-05-06 22:15:00,
2013-05-06 16:17:00,75.1,32.4,29.77,North,0,0.0,0.0,21,0.00,,,0.00,WUHU216HW,2013-05-06 22:17:00,
2013-05-06 16:18:00,75.1,32.4,29.77,North,0,0.0,0.0,21,0.00,,,0.00,WUHU216HW,2013-05-06 22:18:00,
2013-05-06 16:19:00,74.9,29.5,29.77,North,0,0.0,0.0,19,0.00,,,0.00,WUHU216HW,2013-05-06 22:19:00,
2013-05-06 16:20:00,74.9,29.5,29.77,North,0,0.0,0.0,19,0.00,,,0.00,WUHU216HW,2013-05-06 22:20:00,
2013-05-06 16:21:00,74.9,29.5,29.77,North,0,0.0,0.0,19,0.00,,,0.00,WUHU216HW,2013-05-06 22:21:00,
2013-05-06 16:22:00,74.7,32.1,29.77,North,0,0.0,0.0,21,0.00,,,0.00,WUHU216HW,2013-05-06 22:22:00,
2013-05-06 16:24:00,74.5,32.0,29.77,North,0,0.0,0.0,21,0.00,,,0.00,WUHU216HW,2013-05-06 22:24:00,
2013-05-06 16:25:00,74.3,31.8,29.77,North,0,0.0,0.0,21,0.00,,,0.00,WUHU216HW,2013-05-06 22:25:00,
2013-05-06 16:26:00,74.3,31.8,29.77,North,0,0.0,0.0,21,0.00,,,0.00,WUHU216HW,2013-05-06 22:26:00,
2013-05-06 16:27:00,74.3,29.2,29.77,North,0,0.0,0.0,19,0.00,,,0.00,WUHU216HW,2013-05-06 22:27:00,
2013-05-06 16:29:00,74.2,29.0,29.77,North,0,0.0,0.0,19,0.00,,,0.00,WUHU216HW,2013-05-06 22:29:00,
2013-05-06 16:30:00,74.2,29.0,29.77,North,0,0.0,0.0,19,0.00,,,0.00,WUHU216HW,2013-05-06 22:30:00,
2013-05-06 16:31:00,74.2,30.6,29.77,North,0,0.0,0.0,20,0.00,,,0.00,WUHU216HW,2013-05-06 22:31:00,
2013-05-06 16:33:00,74.2,31.7,29.77,North,0,0.0,0.0,21,0.00,,,0.00,WUHU216HW,2013-05-06 22:33:00,
2013-05-06 16:34:00,74.2,31.7,29.77,North,0,0.0,0.0,21,0.00,,,0.00,WUHU216HW,2013-05-06 22:34:00,
2013-05-06 16:35:00,74.3,31.8,29.77,North,0,0.0,0.0,21,0.00,,,0.00,WUHU216HW,2013-05-06 22:35:00,
2013-05-06 16:36:00,74.2,31.7,29.77,North,0,0.0,0.0,21,0.00,,,0.00,WUHU216HW,2013-05-06 22:36:00,
2013-05-06 16:37:00,74.2,31.7,29.77,North,0,0.0,0.0,21,0.00,,,0.00,WUHU216HW,2013-05-06 22:37:00,
2013-05-06 16:40:00,74.2,31.7,29.77,North,0,0.0,0.0,21,0.00,,,0.00,WUHU216HW,2013-05-06 22:40:00,
2013-05-06 16:41:00,74.0,31.5,29.77,North,0,0.0,0.0,21,0.00,,,0.00,WUHU216HW,2013-05-06 22:41:00,
2013-05-06 16:43:00,73.8,30.3,29.77,North,0,0.0,0.0,20,0.00,,,0.00,WUHU216HW,2013-05-06 22:43:00,
2013-05-06 16:45:00,73.8,31.3,29.77,North,0,0.0,0.0,21,0.00,,,0.00,WUHU216HW,2013-05-06 22:45:00,
2013-05-06 16:46:00,73.8,31.3,29.77,North,0,0.0,0.0,21,0.00,,,0.00,WUHU216HW,2013-05-06 22:46:00,
2013-05-06 16:48:00,73.6,31.2,29.77,North,0,0.0,0.0,21,0.00,,,0.00,WUHU216HW,2013-05-06 22:48:00,
2013-05-06 16:50:00,73.4,31.1,29.76,North,0,0.0,0.0,21,0.00,,,0.00,WUHU216HW,2013-05-06 22:50:00,
2013-05-06 16:51:00,73.4,31.1,29.76,North,0,0.0,0.0,21,0.00,,,0.00,WUHU216HW,2013-05-06 22:51:00,
2013-05-06 16:53:00,73.4,31.1,29.76,North,0,0.0,0.0,21,0.00,,,0.00,WUHU216HW,2013-05-06 22:53:00,
2013-05-06 16:55:00,73.6,31.2,29.76,North,0,0.0,0.0,21,0.00,,,0.00,WUHU216HW,2013-05-06 22:55:00,
2013-05-06 16:56:00,73.6,31.2,29.76,North,0,0.0,0.0,21,0.00,,,0.00,WUHU216HW,2013-05-06 22:56:00,
2013-05-06 16:57:00,73.6,31.2,29.76,North,0,0.0,0.0,21,0.00,,,0.00,WUHU216HW,2013-05-06 22:57:00,
2013-05-06 16:58:00,73.6,31.2,29.76,North,0,0.0,0.0,21,0.00,,,0.00,WUHU216HW,2013-05-06 22:58:00,
2013-05-06 17:00:00,73.6,31.2,29.76,North,0,0.0,0.0,21,0.00,,,0.00,WUHU216HW,2013-05-06 23:00:00,
2013-05-06 17:01:00,73.6,31.2,29.76,North,0,0.0,0.0,21,0.00,,,0.00,WUHU216HW,2013-05-06 23:01:00,
2013-05-06 17:02:00,73.6,31.2,29.76,North,0,0.0,0.0,21,0.00,,,0.00,WUHU216HW,2013-05-06 23:02:00,
2013-05-06 17:03:00,73.6,31.2,29.76,North,0,0.0,0.0,21,0.00,,,0.00,WUHU216HW,2013-05-06 23:03:00,
2013-05-06 17:05:00,73.8,31.3,29.76,North,0,0.0,0.0,21,0.00,,,0.00,WUHU216HW,2013-05-06 23:05:00,
2013-05-06 17:06:00,73.8,31.3,29.76,North,0,0.0,0.0,21,0.00,,,0.00,WUHU216HW,2013-05-06 23:06:00,
2013-05-06 17:07:00,73.6,31.2,29.76,North,0,0.0,0.0,21,0.00,,,0.00,WUHU216HW,2013-05-06 23:07:00,
2013-05-06 17:08:00,73.8,31.3,29.76,North,0,0.0,0.0,21,0.00,,,0.00,WUHU216HW,2013-05-06 23:08:00,
2013-05-06 17:09:00,73.8,31.3,29.76,North,0,0.0,0.0,21,0.00,,,0.00,WUHU216HW,2013-05-06 23:09:00,
2013-05-06 17:10:00,73.8,31.3,29.76,North,0,0.0,0.0,21,0.00,,,0.00,WUHU216HW,2013-05-06 23:10:00,
2013-05-06 17:11:00,74.0,31.5,29.76,North,0,0.0,0.0,21,0.00,,,0.00,WUHU216HW,2013-05-06 23:11:00,
2013-05-06 17:13:00,74.0,31.5,29.76,North,0,0.0,0.0,21,0.00,,,0.00,WUHU216HW,2013-05-06 23:13:00,
2013-05-06 17:14:00,74.0,31.5,29.76,North,0,0.0,0.0,21,0.00,,,0.00,WUHU216HW,2013-05-06 23:14:00,
2013-05-06 17:16:00,74.3,31.8,29.76,North,0,0.0,0.0,21,0.00,,,0.00,WUHU216HW,2013-05-06 23:16:00,
2013-05-06 17:18:00,74.5,32.0,29.76,North,0,0.0,0.0,21,0.00,,,0.00,WUHU216HW,2013-05-06 23:18:00,
2013-05-06 17:19:00,74.5,29.3,29.76,North,0,0.0,0.0,19,0.00,,,0.00,WUHU216HW,2013-05-06 23:19:00,
2013-05-06 17:21:00,74.7,29.4,29.76,North,0,0.0,0.0,19,0.00,,,0.00,WUHU216HW,2013-05-06 23:21:00,
2013-05-06 17:23:00,74.9,27.9,29.76,North,0,0.0,0.0,18,0.00,,,0.00,WUHU216HW,2013-05-06 23:23:00,
2013-05-06 17:24:00,74.9,27.9,29.76,North,0,0.0,0.0,18,0.00,,,0.00,WUHU216HW,2013-05-06 23:24:00,
2013-05-06 17:26:00,74.9,27.9,29.76,North,0,0.0,0.0,18,0.00,,,0.00,WUHU216HW,2013-05-06 23:26:00,
2013-05-06 17:28:00,74.9,27.9,29.76,North,0,0.0,0.0,18,0.00,,,0.00,WUHU216HW,2013-05-06 23:28:00,
2013-05-06 17:29:00,74.9,27.9,29.76,North,0,0.0,0.0,18,0.00,,,0.00,WUHU216HW,2013-05-06 23:29:00,
2013-05-06 17:31:00,74.9,27.9,29.76,North,0,0.0,0.0,18,0.00,,,0.00,WUHU216HW,2013-05-06 23:31:00,
2013-05-06 17:33:00,74.9,27.9,29.76,North,0,0.0,0.0,18,0.00,,,0.00,WUHU216HW,2013-05-06 23:33:00,
2013-05-06 17:34:00,74.9,27.9,29.76,North,0,0.0,0.0,18,0.00,,,0.00,WUHU216HW,2013-05-06 23:34:00,
2013-05-06 17:35:00,74.9,27.9,29.76,North,0,0.0,0.0,18,0.00,,,0.00,WUHU216HW,2013-05-06 23:35:00,
2013-05-06 17:36:00,74.9,27.9,29.76,North,0,0.0,0.0,18,0.00,,,0.00,WUHU216HW,2013-05-06 23:36:00,
2013-05-06 17:37:00,74.9,27.9,29.76,North,0,0.0,0.0,18,0.00,,,0.00,WUHU216HW,2013-05-06 23:37:00,
2013-05-06 17:38:00,75.1,28.1,29.76,North,0,0.0,0.0,18,0.00,,,0.00,WUHU216HW,2013-05-06 23:38:00,
2013-05-06 17:40:00,74.9,27.9,29.76,North,0,0.0,0.0,18,0.00,,,0.00,WUHU216HW,2013-05-06 23:40:00,
2013-05-06 17:42:00,74.9,27.9,29.76,North,0,0.0,0.0,18,0.00,,,0.00,WUHU216HW,2013-05-06 23:42:00,
2013-05-06 17:44:00,74.9,27.9,29.76,North,0,0.0,0.0,18,0.00,,,0.00,WUHU216HW,2013-05-06 23:44:00,
2013-05-06 17:45:00,74.7,27.8,29.76,North,0,0.0,0.0,18,0.00,,,0.00,WUHU216HW,2013-05-06 23:45:00,
2013-05-06 17:47:00,74.7,29.4,29.76,North,0,0.0,0.0,19,0.00,,,0.00,WUHU216HW,2013-05-06 23:47:00,
2013-05-06 17:49:00,74.5,27.6,29.76,North,0,0.0,0.0,18,0.00,,,0.00,WUHU216HW,2013-05-06 23:49:00,
2013-05-06 17:50:00,74.5,27.6,29.76,North,0,0.0,0.0,18,0.00,,,0.00,WUHU216HW,2013-05-06 23:50:00,
2013-05-06 17:52:00,74.5,27.6,29.76,North,0,0.0,0.0,18,0.00,,,0.00,WUHU216HW,2013-05-06 23:52:00,
2013-05-06 17:55:00,74.5,27.6,29.76,North,0,0.0,0.0,18,0.00,,,0.00,WUHU216HW,2013-05-06 23:55:00,
2013-05-06 17:57:00,74.3,29.2,29.76,North,0,0.0,0.0,19,0.00,,,0.00,WUHU216HW,2013-05-06 23:57:00,
2013-05-06 18:00:00,74.2,29.0,29.76,North,0,0.0,0.0,19,0.00,,,0.00,WUHU216HW,2013-05-07 00:00:00,
2013-05-06 18:01:00,74.2,29.0,29.76,North,0,0.0,0.0,19,0.00,,,0.00,WUHU216HW,2013-05-07 00:01:00,
2013-05-06 18:02:00,74.2,29.0,29.76,North,0,0.0,0.0,19,0.00,,,0.00,WUHU216HW,2013-05-07 00:02:00,
2013-05-06 18:05:00,74.0,28.9,29.76,North,0,0.0,0.0,19,0.00,,,0.00,WUHU216HW,2013-05-07 00:05:00,
2013-05-06 18:06:00,73.8,28.7,29.76,North,0,0.0,0.0,19,0.00,,,0.00,WUHU216HW,2013-05-07 00:06:00,
2013-05-06 18:07:00,73.8,28.7,29.76,North,0,0.0,0.0,19,0.00,,,0.00,WUHU216HW,2013-05-07 00:07:00,
2013-05-06 18:08:00,73.8,28.7,29.76,North,0,0.0,0.0,19,0.00,,,0.00,WUHU216HW,2013-05-07 00:08:00,
2013-05-06 18:10:00,73.8,28.7,29.76,North,0,0.0,0.0,19,0.00,,,0.00,WUHU216HW,2013-05-07 00:10:00,
2013-05-06 18:11:00,73.8,28.7,29.76,North,0,0.0,0.0,19,0.00,,,0.00,WUHU216HW,2013-05-07 00:11:00,
2013-05-06 18:12:00,73.8,28.7,29.76,North,0,0.0,0.0,19,0.00,,,0.00,WUHU216HW,2013-05-07 00:12:00,
2013-05-06 18:13:00,73.8,28.7,29.76,North,0,0.0,0.0,19,0.00,,,0.00,WUHU216HW,2013-05-07 00:13:00,
2013-05-06 18:15:00,73.6,28.5,29.76,North,0,0.0,0.0,19,0.00,,,0.00,WUHU216HW,2013-05-07 00:15:00,
2013-05-06 18:16:00,73.6,28.5,29.76,North,0,0.0,0.0,19,0.00,,,0.00,WUHU216HW,2013-05-07 00:16:00,
2013-05-06 18:17:00,73.6,28.5,29.76,North,0,0.0,0.0,19,0.00,,,0.00,WUHU216HW,2013-05-07 00:17:00,
2013-05-06 18:18:00,73.6,28.5,29.76,North,0,0.0,0.0,19,0.00,,,0.00,WUHU216HW,2013-05-07 00:18:00,
2013-05-06 18:20:00,73.4,28.5,29.76,North,0,0.0,0.0,19,0.00,,,0.00,WUHU216HW,2013-05-07 00:20:00,
2013-05-06 18:21:00,73.4,28.5,29.76,North,0,0.0,0.0,19,0.00,,,0.00,WUHU216HW,2013-05-07 00:21:00,
2013-05-06 18:22:00,73.3,28.3,29.76,North,0,0.0,0.0,19,0.00,,,0.00,WUHU216HW,2013-05-07 00:22:00,
2013-05-06 18:23:00,73.3,28.3,29.76,North,0,0.0,0.0,19,0.00,,,0.00,WUHU216HW,2013-05-07 00:23:00,
2013-05-06 18:26:00,73.1,28.1,29.76,North,0,0.0,0.0,19,0.00,,,0.00,WUHU216HW,2013-05-07 00:26:00,
2013-05-06 18:27:00,73.1,28.1,29.76,North,0,0.0,0.0,19,0.00,,,0.00,WUHU216HW,2013-05-07 00:27:00,
2013-05-06 18:28:00,73.1,28.1,29.76,North,0,0.0,0.0,19,0.00,,,0.00,WUHU216HW,2013-05-07 00:28:00,
2013-05-06 18:31:00,72.9,27.9,29.76,North,0,0.0,0.0,19,0.00,,,0.00,WUHU216HW,2013-05-07 00:31:00,
2013-05-06 18:32:00,72.9,27.9,29.76,North,0,0.0,0.0,19,0.00,,,0.00,WUHU216HW,2013-05-07 00:32:00,
2013-05-06 18:33:00,72.7,27.8,29.75,North,0,0.0,0.0,19,0.00,,,0.00,WUHU216HW,2013-05-07 00:33:00,
2013-05-06 18:37:00,72.9,27.9,29.75,North,0,0.0,0.0,19,0.00,,,0.00,WUHU216HW,2013-05-07 00:37:00,
2013-05-06 18:38:00,72.9,27.9,29.75,North,0,0.0,0.0,19,0.00,,,0.00,WUHU216HW,2013-05-07 00:38:00,
2013-05-06 18:43:00,72.9,27.9,29.75,North,0,0.0,0.0,19,0.00,,,0.00,WUHU216HW,2013-05-07 00:43:00,
2013-05-06 18:44:00,72.9,27.9,29.75,North,0,0.0,0.0,19,0.00,,,0.00,WUHU216HW,2013-05-07 00:44:00,
2013-05-06 18:48:00,72.7,27.8,29.75,North,0,0.0,0.0,19,0.00,,,0.00,WUHU216HW,2013-05-07 00:48:00,
2013-05-06 18:49:00,72.5,27.6,29.75,North,0,0.0,0.0,19,0.00,,,0.00,WUHU216HW,2013-05-07 00:49:00,
2013-05-06 18:53:00,72.5,27.6,29.76,North,0,0.0,0.0,19,0.00,,,0.00,WUHU216HW,2013-05-07 00:53:00,
2013-05-06 18:54:00,72.5,27.6,29.76,North,0,0.0,0.0,19,0.00,,,0.00,WUHU216HW,2013-05-07 00:54:00,
2013-05-06 18:58:00,72.4,27.5,29.76,North,0,0.0,0.0,19,0.00,,,0.00,WUHU216HW,2013-05-07 00:58:00,
2013-05-06 18:59:00,72.4,27.5,29.76,North,0,0.0,0.0,19,0.00,,,0.00,WUHU216HW,2013-05-07 00:59:00,
2013-05-06 19:03:00,72.0,27.2,29.76,North,0,0.0,0.0,19,0.00,,,0.00,WUHU216HW,2013-05-07 01:03:00,
2013-05-06 19:05:00,72.0,27.2,29.76,North,0,0.0,0.0,19,0.00,,,0.00,WUHU216HW,2013-05-07 01:05:00,
2013-05-06 19:08:00,72.0,27.2,29.76,North,0,0.0,0.0,19,0.00,,,0.00,WUHU216HW,2013-05-07 01:08:00,
2013-05-06 19:09:00,72.0,27.2,29.76,North,0,0.0,0.0,19,0.00,,,0.00,WUHU216HW,2013-05-07 01:09:00,
2013-05-06 19:10:00,71.8,27.0,29.76,North,0,0.0,0.0,19,0.00,,,0.00,WUHU216HW,2013-05-07 01:10:00,
2013-05-06 19:13:00,71.8,27.0,29.76,North,0,0.0,0.0,19,0.00,,,0.00,WUHU216HW,2013-05-07 01:13:00,
2013-05-06 19:14:00,71.8,27.0,29.76,North,0,0.0,0.0,19,0.00,,,0.00,WUHU216HW,2013-05-07 01:14:00,
2013-05-06 19:15:00,71.8,27.0,29.76,North,0,0.0,0.0,19,0.00,,,0.00,WUHU216HW,2013-05-07 01:15:00,
2013-05-06 19:19:00,72.0,29.8,29.76,North,0,0.0,0.0,21,0.00,,,0.00,WUHU216HW,2013-05-07 01:19:00,
2013-05-06 19:20:00,72.0,29.8,29.76,North,0,0.0,0.0,21,0.00,,,0.00,WUHU216HW,2013-05-07 01:20:00,
2013-05-06 19:24:00,72.7,31.4,29.76,North,0,0.0,0.0,22,0.00,,,0.00,WUHU216HW,2013-05-07 01:24:00,
2013-05-06 19:26:00,73.3,32.0,29.76,North,0,0.0,0.0,22,0.00,,,0.00,WUHU216HW,2013-05-07 01:26:00,
2013-05-06 19:29:00,74.2,31.7,29.76,North,0,0.0,0.0,21,0.00,,,0.00,WUHU216HW,2013-05-07 01:29:00,
2013-05-06 19:30:00,74.3,31.8,29.76,North,0,0.0,0.0,21,0.00,,,0.00,WUHU216HW,2013-05-07 01:30:00,
2013-05-06 19:31:00,74.5,32.0,29.76,North,0,0.0,0.0,21,0.00,,,0.00,WUHU216HW,2013-05-07 01:31:00,
2013-05-06 19:34:00,74.5,29.3,29.76,North,0,0.0,0.0,19,0.00,,,0.00,WUHU216HW,2013-05-07 01:34:00,
2013-05-06 19:35:00,74.3,29.2,29.76,North,0,0.0,0.0,19,0.00,,,0.00,WUHU216HW,2013-05-07 01:35:00,
2013-05-06 19:36:00,74.3,29.2,29.76,North,0,0.0,0.0,19,0.00,,,0.00,WUHU216HW,2013-05-07 01:36:00,
2013-05-06 19:39:00,74.2,29.0,29.76,North,0,0.0,0.0,19,0.00,,,0.00,WUHU216HW,2013-05-07 01:39:00,
2013-05-06 19:40:00,74.0,28.9,29.76,North,0,0.0,0.0,19,0.00,,,0.00,WUHU216HW,2013-05-07 01:40:00,
2013-05-06 19:41:00,73.8,28.7,29.76,North,0,0.0,0.0,19,0.00,,,0.00,WUHU216HW,2013-05-07 01:41:00,
2013-05-06 19:44:00,73.6,28.5,29.76,North,0,0.0,0.0,19,0.00,,,0.00,WUHU216HW,2013-05-07 01:44:00,
2013-05-06 19:45:00,73.4,28.5,29.76,North,0,0.0,0.0,19,0.00,,,0.00,WUHU216HW,2013-05-07 01:45:00,
2013-05-06 19:46:00,73.4,28.5,29.76,North,0,0.0,0.0,19,0.00,,,0.00,WUHU216HW,2013-05-07 01:46:00,
2013-05-06 19:49:00,73.1,28.1,29.76,North,0,0.0,0.0,19,0.00,,,0.00,WUHU216HW,2013-05-07 01:49:00,
2013-05-06 19:50:00,73.1,28.1,29.76,North,0,0.0,0.0,19,0.00,,,0.00,WUHU216HW,2013-05-07 01:50:00,
2013-05-06 19:52:00,72.7,27.8,29.77,North,0,0.0,0.0,19,0.00,,,0.00,WUHU216HW,2013-05-07 01:52:00,
2013-05-06 19:55:00,72.4,27.5,29.77,North,0,0.0,0.0,19,0.00,,,0.00,WUHU216HW,2013-05-07 01:55:00,
2013-05-06 19:56:00,72.4,27.5,29.77,North,0,0.0,0.0,19,0.00,,,0.00,WUHU216HW,2013-05-07 01:56:00,
2013-05-06 19:57:00,72.4,27.5,29.77,North,0,0.0,0.0,19,0.00,,,0.00,WUHU216HW,2013-05-07 01:57:00,
2013-05-06 20:00:00,72.0,27.2,29.77,North,0,0.0,0.0,19,0.00,,,0.00,WUHU216HW,2013-05-07 02:00:00,
2013-05-06 20:01:00,72.0,27.2,29.77,North,0,0.0,0.0,19,0.00,,,0.00,WUHU216HW,2013-05-07 02:01:00,
2013-05-06 20:02:00,72.0,27.2,29.77,North,0,0.0,0.0,19,0.00,,,0.00,WUHU216HW,2013-05-07 02:02:00,
2013-05-06 20:05:00,71.8,27.0,29.77,North,0,0.0,0.0,19,0.00,,,0.00,WUHU216HW,2013-05-07 02:05:00,
2013-05-06 20:06:00,71.6,28.4,29.77,North,0,0.0,0.0,20,0.00,,,0.00,WUHU216HW,2013-05-07 02:06:00,
2013-05-06 20:07:00,71.6,28.4,29.77,North,0,0.0,0.0,20,0.00,,,0.00,WUHU216HW,2013-05-07 02:07:00,
2013-05-06 20:08:00,71.6,28.4,29.77,North,0,0.0,0.0,20,0.00,,,0.00,WUHU216HW,2013-05-07 02:08:00,
2013-05-06 20:10:00,71.5,28.3,29.77,North,0,0.0,0.0,20,0.00,,,0.00,WUHU216HW,2013-05-07 02:10:00,
2013-05-06 20:11:00,71.5,28.3,29.77,North,0,0.0,0.0,20,0.00,,,0.00,WUHU216HW,2013-05-07 02:11:00,
2013-05-06 20:12:00,71.5,28.3,29.77,North,0,0.0,0.0,20,0.00,,,0.00,WUHU216HW,2013-05-07 02:12:00,
2013-05-06 20:13:00,71.3,28.2,29.77,North,0,0.0,0.0,20,0.00,,,0.00,WUHU216HW,2013-05-07 02:13:00,
2013-05-06 20:15:00,71.1,29.1,29.77,North,0,0.0,0.0,21,0.00,,,0.00,WUHU216HW,2013-05-07 02:15:00,
2013-05-06 20:16:00,71.1,29.1,29.77,North,0,0.0,0.0,21,0.00,,,0.00,WUHU216HW,2013-05-07 02:16:00,
2013-05-06 20:17:00,71.1,29.1,29.77,North,0,0.0,0.0,21,0.00,,,0.00,WUHU216HW,2013-05-07 02:17:00,
2013-05-06 20:18:00,70.9,28.9,29.77,North,0,0.0,0.0,21,0.00,,,0.00,WUHU216HW,2013-05-07 02:18:00,
2013-05-06 20:20:00,70.9,28.9,29.77,North,0,0.0,0.0,21,0.00,,,0.00,WUHU216HW,2013-05-07 02:20:00,
2013-05-06 20:21:00,70.9,28.9,29.77,North,0,0.0,0.0,21,0.00,,,0.00,WUHU216HW,2013-05-07 02:21:00,
2013-05-06 20:22:00,70.9,28.9,29.77,North,0,0.0,0.0,21,0.00,,,0.00,WUHU216HW,2013-05-07 02:22:00,
2013-05-06 20:24:00,70.9,28.9,29.78,North,0,0.0,0.0,21,0.00,,,0.00,WUHU216HW,2013-05-07 02:24:00,
2013-05-06 20:26:00,70.7,28.7,29.78,North,0,0.0,0.0,21,0.00,,,0.00,WUHU216HW,2013-05-07 02:26:00,
2013-05-06 20:27:00,70.7,28.7,29.78,North,0,0.0,0.0,21,0.00,,,0.00,WUHU216HW,2013-05-07 02:27:00,
2013-05-06 20:28:00,70.7,28.7,29.78,North,0,0.0,0.0,21,0.00,,,0.00,WUHU216HW,2013-05-07 02:28:00,
2013-05-06 20:29:00,70.6,28.6,29.78,North,0,0.0,0.0,21,0.00,,,0.00,WUHU216HW,2013-05-07 02:29:00,
2013-05-06 20:31:00,70.6,28.6,29.78,North,0,0.0,0.0,21,0.00,,,0.00,WUHU216HW,2013-05-07 02:31:00,
2013-05-06 20:32:00,70.6,28.6,29.78,North,0,0.0,0.0,21,0.00,,,0.00,WUHU216HW,2013-05-07 02:32:00,
2013-05-06 20:33:00,70.6,28.6,29.78,North,0,0.0,0.0,21,0.00,,,0.00,WUHU216HW,2013-05-07 02:33:00,
2013-05-06 20:34:00,70.4,28.4,29.78,North,0,0.0,0.0,21,0.00,,,0.00,WUHU216HW,2013-05-07 02:34:00,
2013-05-06 20:36:00,70.4,28.4,29.78,North,0,0.0,0.0,21,0.00,,,0.00,WUHU216HW,2013-05-07 02:36:00,
2013-05-06 20:37:00,70.2,28.3,29.78,North,0,0.0,0.0,21,0.00,,,0.00,WUHU216HW,2013-05-07 02:37:00,
2013-05-06 20:38:00,70.2,28.3,29.78,North,0,0.0,0.0,21,0.00,,,0.00,WUHU216HW,2013-05-07 02:38:00,
2013-05-06 20:39:00,70.2,28.3,29.78,North,0,0.0,0.0,21,0.00,,,0.00,WUHU216HW,2013-05-07 02:39:00,
2013-05-06 20:41:00,70.2,28.3,29.78,North,0,0.0,0.0,21,0.00,,,0.00,WUHU216HW,2013-05-07 02:41:00,
2013-05-06 20:42:00,70.2,28.3,29.78,North,0,0.0,0.0,21,0.00,,,0.00,WUHU216HW,2013-05-07 02:42:00,
2013-05-06 20:43:00,70.2,28.3,29.78,North,0,0.0,0.0,21,0.00,,,0.00,WUHU216HW,2013-05-07 02:43:00,
2013-05-06 20:44:00,70.2,28.3,29.78,North,0,0.0,0.0,21,0.00,,,0.00,WUHU216HW,2013-05-07 02:44:00,
2013-05-06 20:46:00,70.2,28.3,29.78,North,0,0.0,0.0,21,0.00,,,0.00,WUHU216HW,2013-05-07 02:46:00,
2013-05-06 20:48:00,70.0,28.2,29.78,North,0,0.0,0.0,21,0.00,,,0.00,WUHU216HW,2013-05-07 02:48:00,
2013-05-06 20:49:00,70.0,28.2,29.78,North,0,0.0,0.0,21,0.00,,,0.00,WUHU216HW,2013-05-07 02:49:00,
2013-05-06 20:51:00,70.0,28.2,29.78,North,0,0.0,0.0,21,0.00,,,0.00,WUHU216HW,2013-05-07 02:51:00,
2013-05-06 20:53:00,70.0,28.2,29.78,North,0,0.0,0.0,21,0.00,,,0.00,WUHU216HW,2013-05-07 02:53:00,
2013-05-06 20:54:00,70.0,28.2,29.78,North,0,0.0,0.0,21,0.00,,,0.00,WUHU216HW,2013-05-07 02:54:00,
2013-05-06 20:57:00,69.8,28.0,29.78,North,0,0.0,0.0,21,0.00,,,0.00,WUHU216HW,2013-05-07 02:57:00,
2013-05-06 20:58:00,69.8,28.0,29.78,North,0,0.0,0.0,21,0.00,,,0.00,WUHU216HW,2013-05-07 02:58:00,
2013-05-06 20:59:00,69.8,29.0,29.78,North,0,0.0,0.0,22,0.00,,,0.00,WUHU216HW,2013-05-07 02:59:00,
2013-05-06 21:02:00,69.8,29.0,29.78,North,0,0.0,0.0,22,0.00,,,0.00,WUHU216HW,2013-05-07 03:02:00,
2013-05-06 21:03:00,69.7,28.9,29.79,North,0,0.0,0.0,22,0.00,,,0.00,WUHU216HW,2013-05-07 03:03:00,
2013-05-06 21:04:00,69.7,27.9,29.79,North,0,0.0,0.0,21,0.00,,,0.00,WUHU216HW,2013-05-07 03:04:00,
2013-05-06 21:07:00,69.5,28.7,29.79,North,0,0.0,0.0,22,0.00,,,0.00,WUHU216HW,2013-05-07 03:07:00,
2013-05-06 21:08:00,69.5,28.7,29.79,North,0,0.0,0.0,22,0.00,,,0.00,WUHU216HW,2013-05-07 03:08:00,
2013-05-06 21:09:00,69.5,28.7,29.79,North,0,0.0,0.0,22,0.00,,,0.00,WUHU216HW,2013-05-07 03:09:00,
2013-05-06 21:10:00,69.5,28.7,29.79,North,0,0.0,0.0,22,0.00,,,0.00,WUHU216HW,2013-05-07 03:10:00,
2013-05-06 21:12:00,69.5,28.7,29.79,North,0,0.0,0.0,22,0.00,,,0.00,WUHU216HW,2013-05-07 03:12:00,
2013-05-06 21:13:00,69.5,28.7,29.79,North,0,0.0,0.0,22,0.00,,,0.00,WUHU216HW,2013-05-07 03:13:00,
2013-05-06 21:14:00,69.3,28.5,29.79,North,0,0.0,0.0,22,0.00,,,0.00,WUHU216HW,2013-05-07 03:14:00,
2013-05-06 21:15:00,69.3,28.5,29.79,North,0,0.0,0.0,22,0.00,,,0.00,WUHU216HW,2013-05-07 03:15:00,
2013-05-06 21:17:00,69.3,28.5,29.79,North,0,0.0,0.0,22,0.00,,,0.00,WUHU216HW,2013-05-07 03:17:00,
2013-05-06 21:18:00,69.3,28.5,29.79,North,0,0.0,0.0,22,0.00,,,0.00,WUHU216HW,2013-05-07 03:18:00,
2013-05-06 21:20:00,69.3,28.5,29.79,North,0,0.0,0.0,22,0.00,,,0.00,WUHU216HW,2013-05-07 03:20:00,
2013-05-06 21:22:00,69.3,28.5,29.79,North,0,0.0,0.0,22,0.00,,,0.00,WUHU216HW,2013-05-07 03:22:00,
2013-05-06 21:24:00,69.3,28.5,29.79,North,0,0.0,0.0,22,0.00,,,0.00,WUHU216HW,2013-05-07 03:24:00,
2013-05-06 21:25:00,69.3,28.5,29.79,North,0,0.0,0.0,22,0.00,,,0.00,WUHU216HW,2013-05-07 03:25:00,
2013-05-06 21:28:00,69.1,28.5,29.80,North,0,0.0,0.0,22,0.00,,,0.00,WUHU216HW,2013-05-07 03:28:00,
2013-05-06 21:29:00,69.1,28.5,29.80,North,0,0.0,0.0,22,0.00,,,0.00,WUHU216HW,2013-05-07 03:29:00,
2013-05-06 21:30:00,69.1,28.5,29.80,North,0,0.0,0.0,22,0.00,,,0.00,WUHU216HW,2013-05-07 03:30:00,
2013-05-06 21:33:00,69.1,28.5,29.80,North,0,0.0,0.0,22,0.00,,,0.00,WUHU216HW,2013-05-07 03:33:00,
2013-05-06 21:34:00,68.9,28.3,29.80,North,0,0.0,0.0,22,0.00,,,0.00,WUHU216HW,2013-05-07 03:34:00,
2013-05-06 21:35:00,68.9,28.3,29.80,North,0,0.0,0.0,22,0.00,,,0.00,WUHU216HW,2013-05-07 03:35:00,
2013-05-06 21:38:00,68.9,28.3,29.80,North,0,0.0,0.0,22,0.00,,,0.00,WUHU216HW,2013-05-07 03:38:00,
2013-05-06 21:39:00,68.9,28.3,29.80,North,0,0.0,0.0,22,0.00,,,0.00,WUHU216HW,2013-05-07 03:39:00,
2013-05-06 21:40:00,68.8,28.2,29.80,North,0,0.0,0.0,22,0.00,,,0.00,WUHU216HW,2013-05-07 03:40:00,
2013-05-06 21:41:00,68.8,28.2,29.80,North,0,0.0,0.0,22,0.00,,,0.00,WUHU216HW,2013-05-07 03:41:00,
2013-05-06 21:44:00,68.8,28.2,29.80,North,0,0.0,0.0,22,0.00,,,0.00,WUHU216HW,2013-05-07 03:44:00,
2013-05-06 21:45:00,68.8,28.2,29.80,North,0,0.0,0.0,22,0.00,,,0.00,WUHU216HW,2013-05-07 03:45:00,
2013-05-06 21:46:00,68.8,28.2,29.80,North,0,0.0,0.0,22,0.00,,,0.00,WUHU216HW,2013-05-07 03:46:00,
2013-05-06 21:49:00,68.8,29.2,29.80,North,0,0.0,0.0,23,0.00,,,0.00,WUHU216HW,2013-05-07 03:49:00,
2013-05-06 21:51:00,68.6,29.0,29.80,North,0,0.0,0.0,23,0.00,,,0.00,WUHU216HW,2013-05-07 03:51:00,
2013-05-06 21:54:00,68.4,28.8,29.80,North,0,0.0,0.0,23,0.00,,,0.00,WUHU216HW,2013-05-07 03:54:00,
2013-05-06 21:56:00,68.4,27.8,29.80,North,0,0.0,0.0,22,0.00,,,0.00,WUHU216HW,2013-05-07 03:56:00,
2013-05-06 21:57:00,68.4,28.8,29.80,North,0,0.0,0.0,23,0.00,,,0.00,WUHU216HW,2013-05-07 03:57:00,
2013-05-06 21:59:00,68.2,28.7,29.80,North,0,0.0,0.0,23,0.00,,,0.00,WUHU216HW,2013-05-07 03:59:00,
2013-05-06 22:01:00,68.2,28.7,29.80,North,0,0.0,0.0,23,0.00,,,0.00,WUHU216HW,2013-05-07 04:01:00,
2013-05-06 22:06:00,68.0,28.5,29.81,North,0,0.0,0.0,23,0.00,,,0.00,WUHU216HW,2013-05-07 04:06:00,
2013-05-06 22:11:00,67.3,27.9,29.81,North,0,0.0,0.0,23,0.00,,,0.00,WUHU216HW,2013-05-07 04:11:00,
2013-05-06 22:12:00,67.1,27.7,29.81,North,0,0.0,0.0,23,0.00,,,0.00,WUHU216HW,2013-05-07 04:12:00,
2013-05-06 22:16:00,66.2,27.0,29.81,North,0,0.0,0.0,23,0.00,,,0.00,WUHU216HW,2013-05-07 04:16:00,
2013-05-06 22:17:00,66.2,27.0,29.81,North,0,0.0,0.0,23,0.00,,,0.00,WUHU216HW,2013-05-07 04:17:00,
2013-05-06 22:21:00,66.1,26.8,29.81,North,0,0.0,0.0,23,0.00,,,0.00,WUHU216HW,2013-05-07 04:21:00,
2013-05-06 22:22:00,66.1,26.8,29.81,North,0,0.0,0.0,23,0.00,,,0.00,WUHU216HW,2013-05-07 04:22:00,
2013-05-06 22:26:00,66.1,27.8,29.81,North,0,0.0,0.0,24,0.00,,,0.00,WUHU216HW,2013-05-07 04:26:00,
2013-05-06 22:27:00,66.1,27.8,29.81,North,0,0.0,0.0,24,0.00,,,0.00,WUHU216HW,2013-05-07 04:27:00,
2013-05-06 22:28:00,66.1,27.8,29.81,North,0,0.0,0.0,24,0.00,,,0.00,WUHU216HW,2013-05-07 04:28:00,
2013-05-06 22:31:00,66.1,27.8,29.81,North,0,0.0,0.0,24,0.00,,,0.00,WUHU216HW,2013-05-07 04:31:00,
2013-05-06 22:32:00,66.1,27.8,29.81,North,0,0.0,0.0,24,0.00,,,0.00,WUHU216HW,2013-05-07 04:32:00,
2013-05-06 22:33:00,66.1,27.8,29.81,North,0,0.0,0.0,24,0.00,,,0.00,WUHU216HW,2013-05-07 04:33:00,
2013-05-06 22:37:00,65.9,27.6,29.81,North,0,0.0,0.0,24,0.00,,,0.00,WUHU216HW,2013-05-07 04:37:00,
2013-05-06 22:38:00,65.9,27.6,29.81,North,0,0.0,0.0,24,0.00,,,0.00,WUHU216HW,2013-05-07 04:38:00,
2013-05-06 22:42:00,65.7,27.6,29.81,North,0,0.0,0.0,24,0.00,,,0.00,WUHU216HW,2013-05-07 04:42:00,
2013-05-06 22:43:00,65.5,27.4,29.81,North,0,0.0,0.0,24,0.00,,,0.00,WUHU216HW,2013-05-07 04:43:00,
2013-05-06 22:47:00,65.3,28.3,29.81,North,0,0.0,0.0,25,0.00,,,0.00,WUHU216HW,2013-05-07 04:47:00,
2013-05-06 22:48:00,65.3,28.3,29.81,North,0,0.0,0.0,25,0.00,,,0.00,WUHU216HW,2013-05-07 04:48:00,
2013-05-06 22:52:00,65.3,28.3,29.81,North,0,0.0,0.0,25,0.00,,,0.00,WUHU216HW,2013-05-07 04:52:00,
2013-05-06 22:53:00,65.2,28.1,29.81,North,0,0.0,0.0,25,0.00,,,0.00,WUHU216HW,2013-05-07 04:53:00,
2013-05-06 22:54:00,65.2,28.1,29.81,North,0,0.0,0.0,25,0.00,,,0.00,WUHU216HW,2013-05-07 04:54:00,
2013-05-06 22:57:00,65.2,28.1,29.81,North,0,0.0,0.0,25,0.00,,,0.00,WUHU216HW,2013-05-07 04:57:00,
2013-05-06 22:58:00,65.2,28.1,29.81,North,0,0.0,0.0,25,0.00,,,0.00,WUHU216HW,2013-05-07 04:58:00,
2013-05-06 22:59:00,65.2,28.1,29.81,North,0,0.0,0.0,25,0.00,,,0.00,WUHU216HW,2013-05-07 04:59:00,
2013-05-06 23:02:00,65.0,27.9,29.81,North,0,0.0,0.0,25,0.00,,,0.00,WUHU216HW,2013-05-07 05:02:00,
2013-05-06 23:03:00,65.0,27.9,29.81,North,0,0.0,0.0,25,0.00,,,0.00,WUHU216HW,2013-05-07 05:03:00,
2013-05-06 23:04:00,65.0,28.9,29.81,North,0,0.0,0.0,26,0.00,,,0.00,WUHU216HW,2013-05-07 05:04:00,
2013-05-06 23:07:00,64.8,28.7,29.81,North,0,0.0,0.0,26,0.00,,,0.00,WUHU216HW,2013-05-07 05:07:00,
2013-05-06 23:08:00,64.8,28.7,29.81,North,0,0.0,0.0,26,0.00,,,0.00,WUHU216HW,2013-05-07 05:08:00,
2013-05-06 23:09:00,64.8,28.7,29.81,North,0,0.0,0.0,26,0.00,,,0.00,WUHU216HW,2013-05-07 05:09:00,
2013-05-06 23:10:00,64.8,28.7,29.81,North,0,0.0,0.0,26,0.00,,,0.00,WUHU216HW,2013-05-07 05:10:00,
2013-05-06 23:13:00,64.8,28.7,29.81,North,0,0.0,0.0,26,0.00,,,0.00,WUHU216HW,2013-05-07 05:13:00,
2013-05-06 23:14:00,64.6,28.6,29.81,North,0,0.0,0.0,26,0.00,,,0.00,WUHU216HW,2013-05-07 05:14:00,
2013-05-06 23:15:00,64.6,28.6,29.81,North,0,0.0,0.0,26,0.00,,,0.00,WUHU216HW,2013-05-07 05:15:00,
2013-05-06 23:18:00,64.6,28.6,29.81,North,0,0.0,0.0,26,0.00,,,0.00,WUHU216HW,2013-05-07 05:18:00,
2013-05-06 23:19:00,64.6,28.6,29.81,North,0,0.0,0.0,26,0.00,,,0.00,WUHU216HW,2013-05-07 05:19:00,
2013-05-06 23:20:00,64.6,28.6,29.81,North,0,0.0,0.0,26,0.00,,,0.00,WUHU216HW,2013-05-07 05:20:00,
2013-05-06 23:23:00,64.4,28.4,29.82,North,0,0.0,0.0,26,0.00,,,0.00,WUHU216HW,2013-05-07 05:23:00,
2013-05-06 23:24:00,64.4,28.4,29.82,North,0,0.0,0.0,26,0.00,,,0.00,WUHU216HW,2013-05-07 05:24:00,
2013-05-06 23:25:00,64.4,28.4,29.82,North,0,0.0,0.0,26,0.00,,,0.00,WUHU216HW,2013-05-07 05:25:00,
2013-05-06 23:28:00,64.4,28.4,29.82,North,0,0.0,0.0,26,0.00,,,0.00,WUHU216HW,2013-05-07 05:28:00,
2013-05-06 23:29:00,64.4,28.4,29.82,North,0,0.0,0.0,26,0.00,,,0.00,WUHU216HW,2013-05-07 05:29:00,
2013-05-06 23:30:00,64.4,28.4,29.82,North,0,0.0,0.0,26,0.00,,,0.00,WUHU216HW,2013-05-07 05:30:00,
2013-05-06 23:33:00,64.6,28.6,29.82,North,0,0.0,0.0,26,0.00,,,0.00,WUHU216HW,2013-05-07 05:33:00,
2013-05-06 23:34:00,64.6,28.6,29.82,North,0,0.0,0.0,26,0.00,,,0.00,WUHU216HW,2013-05-07 05:34:00,
2013-05-06 23:35:00,64.6,28.6,29.82,North,0,0.0,0.0,26,0.00,,,0.00,WUHU216HW,2013-05-07 05:35:00,
2013-05-06 23:38:00,64.4,28.4,29.82,North,0,0.0,0.0,26,0.00,,,0.00,WUHU216HW,2013-05-07 05:38:00,
2013-05-06 23:39:00,64.4,28.4,29.82,North,0,0.0,0.0,26,0.00,,,0.00,WUHU216HW,2013-05-07 05:39:00,
2013-05-06 23:40:00,64.4,28.4,29.82,North,0,0.0,0.0,26,0.00,,,0.00,WUHU216HW,2013-05-07 05:40:00,
2013-05-06 23:44:00,64.4,28.4,29.82,North,0,0.0,0.0,26,0.00,,,0.00,WUHU216HW,2013-05-07 05:44:00,
2013-05-06 23:45:00,64.4,28.4,29.82,North,0,0.0,0.0,26,0.00,,,0.00,WUHU216HW,2013-05-07 05:45:00,
2013-05-06 23:49:00,64.4,30.4,29.82,North,0,0.0,0.0,28,0.00,,,0.00,WUHU216HW,2013-05-07 05:49:00,
2013-05-06 23:50:00,64.4,30.4,29.82,North,0,0.0,0.0,28,0.00,,,0.00,WUHU216HW,2013-05-07 05:50:00,
2013-05-06 23:54:00,64.4,30.4,29.83,North,0,0.0,0.0,28,0.00,,,0.00,WUHU216HW,2013-05-07 05:54:00,
2013-05-06 23:55:00,64.4,30.4,29.83,North,0,0.0,0.0,28,0.00,,,0.00,WUHU216HW,2013-05-07 05:55:00,
2013-05-06 23:59:00,64.4,29.4,29.83,North,0,0.0,0.0,27,0.00,,,0.00,WUHU216HW,2013-05-07 05:59:00,